| time (UTC) | temp F | wind direction | speed MPH | gust MPH | rain 1hr in | rain 24hr in | rain mn in | humidity % | barometer mb |
| 20260506215722 | 85 | 110 | 0.0 | 2.0 | 0.00 | 0.00 | 0.00 | 19 | 1013.2 |
| 20260506215623 | 85 | 110 | 0.0 | 2.0 | 0.00 | 0.00 | 0.00 | 19 | 1013.2 |
| 20260506215530 | 86 | 110 | 0.0 | 2.0 | 0.00 | 0.00 | 0.00 | 19 | 1013.3 |
| 20260506215438 | 86 | 110 | 0.0 | 2.0 | 0.00 | 0.00 | 0.00 | 20 | 1013.3 |
| 20260506215321 | 86 | 109 | 0.0 | 2.0 | 0.00 | 0.00 | 0.00 | 20 | 1013.2 |
| 20260506215220 | 86 | 113 | 0.0 | 2.0 | 0.00 | 0.00 | 0.00 | 21 | 1013.3 |
| 20260506215130 | 86 | 113 | 0.0 | 2.0 | 0.00 | 0.00 | 0.00 | 21 | 1013.3 |
| 20260506215052 | 85 | 113 | 1.0 | 2.0 | 0.00 | 0.00 | 0.00 | 22 | 1013.3 |
| 20260506214940 | 85 | 113 | 1.0 | 2.0 | 0.00 | 0.00 | 0.00 | 21 | 1013.4 |
| 20260506214825 | 85 | 323 | 0.0 | 2.0 | 0.00 | 0.00 | 0.00 | 22 | 1013.4 |
| 20260506214734 | 85 | 323 | 0.0 | 1.0 | 0.00 | 0.00 | 0.00 | 21 | 1013.4 |
| 20260506214616 | 85 | 328 | 0.0 | 1.0 | 0.00 | 0.00 | 0.00 | 20 | 1013.4 |
| 20260506214538 | 85 | 328 | 0.0 | 1.0 | 0.00 | 0.00 | 0.00 | 19 | 1013.4 |
| 20260506214426 | 85 | 328 | 0.0 | 3.0 | 0.00 | 0.00 | 0.00 | 21 | 1013.4 |
| 20260506214326 | 85 | 328 | 0.0 | 3.0 | 0.00 | 0.00 | 0.00 | 22 | 1013.4 |
| 20260506214235 | 86 | 328 | 0.0 | 3.0 | 0.00 | 0.00 | 0.00 | 23 | 1013.5 |
| 20260506214141 | 86 | 328 | 0.0 | 3.0 | 0.00 | 0.00 | 0.00 | 22 | 1013.5 |
| 20260506214022 | 86 | 328 | 0.0 | 3.0 | 0.00 | 0.00 | 0.00 | 21 | 1013.6 |
| 20260506213931 | 85 | 328 | 0.0 | 3.0 | 0.00 | 0.00 | 0.00 | 19 | 1013.7 |
| 20260506213833 | 85 | 328 | 0.0 | 3.0 | 0.00 | 0.00 | 0.00 | 21 | 1013.7 |
| 20260506213735 | 86 | 328 | 0.0 | 3.0 | 0.00 | 0.00 | 0.00 | 19 | 1013.8 |
| 20260506213615 | 85 | 328 | 1.0 | 3.0 | 0.00 | 0.00 | 0.00 | 21 | 1013.7 |
| 20260506213527 | 84 | 329 | 1.0 | 3.0 | 0.00 | 0.00 | 0.00 | 21 | 1013.7 |
| 20260506213435 | 84 | 330 | 1.0 | 3.0 | 0.00 | 0.00 | 0.00 | 21 | 1013.8 |
| 20260506213343 | 84 | 329 | 0.0 | 3.0 | 0.00 | 0.00 | 0.00 | 21 | 1013.8 |
| 20260506213244 | 84 | 329 | 0.0 | 7.0 | 0.00 | 0.00 | 0.00 | 19 | 1013.8 |
| 20260506213152 | 85 | 329 | 0.0 | 7.0 | 0.00 | 0.00 | 0.00 | 20 | 1013.7 |
| 20260506213034 | 85 | 328 | 0.0 | 9.0 | 0.00 | 0.00 | 0.00 | 23 | 1013.9 |
| 20260506212935 | 85 | 328 | 0.0 | 9.0 | 0.00 | 0.00 | 0.00 | 21 | 1013.8 |
| 20260506212817 | 85 | 331 | 0.0 | 9.0 | 0.00 | 0.00 | 0.00 | 21 | 1013.8 |
| 20260506212729 | 85 | 331 | 0.0 | 9.0 | 0.00 | 0.00 | 0.00 | 21 | 1013.8 |
| 20260506212636 | 85 | 331 | 0.0 | 9.0 | 0.00 | 0.00 | 0.00 | 20 | 1013.8 |
| 20260506212516 | 85 | 331 | 2.0 | 10.0 | 0.00 | 0.00 | 0.00 | 21 | 1013.9 |
| 20260506212445 | 85 | 331 | 3.0 | 10.0 | 0.00 | 0.00 | 0.00 | 20 | 1013.9 |
| 20260506212326 | 85 | 316 | 3.0 | 10.0 | 0.00 | 0.00 | 0.00 | 24 | 1013.9 |
| 20260506212254 | 85 | 328 | 2.0 | 10.0 | 0.00 | 0.00 | 0.00 | 21 | 1013.9 |
| 20260506212135 | 85 | 345 | 1.0 | 10.0 | 0.00 | 0.00 | 0.00 | 21 | 1013.9 |
| 20260506212020 | 85 | 353 | 1.0 | 10.0 | 0.00 | 0.00 | 0.00 | 22 | 1014.0 |
| 20260506211923 | 85 | 354 | 3.0 | 10.0 | 0.00 | 0.00 | 0.00 | 22 | 1014.0 |
| 20260506211832 | 85 | 354 | 5.0 | 10.0 | 0.00 | 0.00 | 0.00 | 21 | 1014.0 |
| 20260506211732 | 85 | 350 | 2.0 | 10.0 | 0.00 | 0.00 | 0.00 | 22 | 1014.0 |
| 20260506211642 | 85 | 357 | 1.0 | 8.0 | 0.00 | 0.00 | 0.00 | 26 | 1014.0 |
| 20260506211523 | 84 | 351 | 2.0 | 10.0 | 0.00 | 0.00 | 0.00 | 25 | 1014.0 |
| 20260506211426 | 84 | 352 | 3.0 | 10.0 | 0.00 | 0.00 | 0.00 | 23 | 1014.0 |
| 20260506211332 | 84 | 352 | 3.0 | 10.0 | 0.00 | 0.00 | 0.00 | 21 | 1013.9 |
| 20260506211242 | 84 | 360 | 1.0 | 10.0 | 0.00 | 0.00 | 0.00 | 20 | 1013.9 |
| 20260506211125 | 84 | 312 | 1.0 | 10.0 | 0.00 | 0.00 | 0.00 | 20 | 1014.0 |
| 20260506211027 | 84 | 294 | 1.0 | 10.0 | 0.00 | 0.00 | 0.00 | 20 | 1014.0 |
| 20260506210927 | 84 | 297 | 1.0 | 10.0 | 0.00 | 0.00 | 0.00 | 20 | 1014.0 |
| 20260506210821 | 84 | 295 | 2.0 | 10.0 | 0.00 | 0.00 | 0.00 | 21 | 1014.0 |
| 20260506210723 | 84 | 295 | 2.0 | 10.0 | 0.00 | 0.00 | 0.00 | 21 | 1014.1 |
| 20260506210631 | 84 | 1 | 0.0 | 6.0 | 0.00 | 0.00 | 0.00 | 22 | 1014.0 |
| 20260506210532 | 84 | 1 | 0.0 | 6.0 | 0.00 | 0.00 | 0.00 | 23 | 1014.1 |
| 20260506210434 | 84 | 1 | 1.0 | 6.0 | 0.00 | 0.00 | 0.00 | 26 | 1014.2 |
| 20260506210316 | 84 | 1 | 1.0 | 6.0 | 0.00 | 0.00 | 0.00 | 24 | 1014.1 |
| 20260506210224 | 84 | 1 | 1.0 | 6.0 | 0.00 | 0.00 | 0.00 | 23 | 1014.1 |
| 20260506210130 | 84 | 344 | 2.0 | 6.0 | 0.00 | 0.00 | 0.00 | 23 | 1014.2 |
| 20260506210029 | 84 | 289 | 2.0 | 6.0 | 0.00 | 0.00 | 0.00 | 20 | 1014.1 |
| 20260506205919 | 85 | 285 | 1.0 | 6.0 | 0.00 | 0.00 | 0.00 | 19 | 1014.2 |
| 20260506205826 | 85 | 271 | 0.0 | 0.0 | 0.00 | 0.00 | 0.00 | 20 | 1014.3 |
| 20260506205728 | 86 | 342 | 0.0 | 0.0 | 0.00 | 0.00 | 0.00 | 19 | 1014.3 |
| 20260506205630 | 86 | 343 | 0.0 | 0.0 | 0.00 | 0.00 | 0.00 | 19 | 1014.3 |
| 20260506205515 | 86 | 343 | 0.0 | 0.0 | 0.00 | 0.00 | 0.00 | 20 | 1014.3 |
| 20260506205444 | 86 | 343 | 0.0 | 0.0 | 0.00 | 0.00 | 0.00 | 23 | 1014.4 |
| 20260506205325 | 87 | 343 | 0.0 | 0.0 | 0.00 | 0.00 | 0.00 | 21 | 1014.4 |
| 20260506205253 | 86 | 22 | 0.0 | 0.0 | 0.00 | 0.00 | 0.00 | 21 | 1014.3 |
| 20260506205202 | 86 | 24 | 0.0 | 0.0 | 0.00 | 0.00 | 0.00 | 21 | 1014.3 |
| 20260506205022 | 86 | 24 | 0.0 | 0.0 | 0.00 | 0.00 | 0.00 | 20 | 1014.4 |
| 20260506204924 | 86 | 25 | 0.0 | 0.0 | 0.00 | 0.00 | 0.00 | 23 | 1014.4 |
| 20260506204826 | 86 | 25 | 0.0 | 1.0 | 0.00 | 0.00 | 0.00 | 23 | 1014.4 |
| 20260506204719 | 86 | 24 | 0.0 | 1.0 | 0.00 | 0.00 | 0.00 | 23 | 1014.4 |
| 20260506204619 | 85 | 26 | 0.0 | 1.0 | 0.00 | 0.00 | 0.00 | 22 | 1014.3 |
| 20260506204527 | 85 | 15 | 0.0 | 6.0 | 0.00 | 0.00 | 0.00 | 22 | 1014.3 |
| 20260506204429 | 85 | 255 | 0.0 | 6.0 | 0.00 | 0.00 | 0.00 | 21 | 1014.4 |
| 20260506204337 | 84 | 252 | 0.0 | 6.0 | 0.00 | 0.00 | 0.00 | 22 | 1014.4 |
| 20260506204240 | 84 | 252 | 0.0 | 6.0 | 0.00 | 0.00 | 0.00 | 22 | 1014.5 |
| 20260506204120 | 83 | 252 | 0.0 | 6.0 | 0.00 | 0.00 | 0.00 | 24 | 1014.3 |
| 20260506204033 | 82 | 252 | 0.0 | 6.0 | 0.00 | 0.00 | 0.00 | 25 | 1014.4 |
| 20260506203935 | 82 | 252 | 0.0 | 8.0 | 0.00 | 0.00 | 0.00 | 25 | 1014.3 |
| 20260506203816 | 82 | 252 | 1.0 | 8.0 | 0.00 | 0.00 | 0.00 | 22 | 1014.4 |
| 20260506203745 | 82 | 252 | 1.0 | 8.0 | 0.00 | 0.00 | 0.00 | 20 | 1014.5 |
| 20260506203647 | 82 | 252 | 0.0 | 8.0 | 0.00 | 0.00 | 0.00 | 21 | 1014.6 |
| 20260506203535 | 82 | 250 | 1.0 | 8.0 | 0.00 | 0.00 | 0.00 | 22 | 1014.6 |
| 20260506203437 | 82 | 250 | 3.0 | 8.0 | 0.00 | 0.00 | 0.00 | 22 | 1014.7 |
| 20260506203329 | 82 | 250 | 2.0 | 8.0 | 0.00 | 0.00 | 0.00 | 23 | 1014.7 |
| 20260506203227 | 82 | 245 | 2.0 | 8.0 | 0.00 | 0.00 | 0.00 | 21 | 1014.7 |
| 20260506203136 | 82 | 245 | 2.0 | 8.0 | 0.00 | 0.00 | 0.00 | 21 | 1014.7 |
| 20260506203016 | 82 | 255 | 2.0 | 5.0 | 0.00 | 0.00 | 0.00 | 20 | 1014.7 |
| 20260506202918 | 82 | 257 | 2.0 | 5.0 | 0.00 | 0.00 | 0.00 | 21 | 1014.7 |
| 20260506202821 | 82 | 257 | 1.0 | 5.0 | 0.00 | 0.00 | 0.00 | 22 | 1014.7 |
| 20260506202749 | 82 | 269 | 2.0 | 5.0 | 0.00 | 0.00 | 0.00 | 20 | 1014.7 |
| 20260506202635 | 82 | 269 | 1.0 | 5.0 | 0.00 | 0.00 | 0.00 | 21 | 1014.7 |
| 20260506202516 | 82 | 262 | 0.0 | 1.0 | 0.00 | 0.00 | 0.00 | 21 | 1014.7 |
| 20260506202426 | 82 | 262 | 0.0 | 1.0 | 0.00 | 0.00 | 0.00 | 21 | 1014.7 |
| 20260506202326 | 82 | 262 | 0.0 | 1.0 | 0.00 | 0.00 | 0.00 | 21 | 1014.7 |
| 20260506202253 | 82 | 242 | 0.0 | 1.0 | 0.00 | 0.00 | 0.00 | 21 | 1014.7 |
| 20260506202142 | 82 | 231 | 0.0 | 0.0 | 0.00 | 0.00 | 0.00 | 22 | 1014.7 |
| 20260506202027 | 82 | 299 | 0.0 | 1.0 | 0.00 | 0.00 | 0.00 | 21 | 1014.6 |
| 20260506201929 | 82 | 299 | 0.0 | 1.0 | 0.00 | 0.00 | 0.00 | 21 | 1014.6 |
| 20260506201830 | 82 | 299 | 0.0 | 1.0 | 0.00 | 0.00 | 0.00 | 21 | 1014.7 |
| 20260506201740 | 83 | 299 | 0.0 | 1.0 | 0.00 | 0.00 | 0.00 | 20 | 1014.7 |
| 20260506201641 | 83 | 299 | 0.0 | 1.0 | 0.00 | 0.00 | 0.00 | 22 | 1014.7 |
| 20260506201522 | 82 | 264 | 0.0 | 1.0 | 0.00 | 0.00 | 0.00 | 22 | 1014.7 |
| 20260506201431 | 82 | 266 | 0.0 | 1.0 | 0.00 | 0.00 | 0.00 | 24 | 1014.7 |
| 20260506201317 | 82 | 266 | 0.0 | 1.0 | 0.00 | 0.00 | 0.00 | 21 | 1014.8 |
| 20260506201218 | 82 | 266 | 0.0 | 0.0 | 0.00 | 0.00 | 0.00 | 21 | 1014.7 |
| 20260506201120 | 82 | 266 | 0.0 | 0.0 | 0.00 | 0.00 | 0.00 | 21 | 1014.7 |
| 20260506201029 | 83 | 266 | 0.0 | 0.0 | 0.00 | 0.00 | 0.00 | 21 | 1014.7 |
| 20260506200932 | 82 | 269 | 0.0 | 0.0 | 0.00 | 0.00 | 0.00 | 23 | 1014.8 |
| 20260506200819 | 81 | 219 | 0.0 | 0.0 | 0.00 | 0.00 | 0.00 | 23 | 1014.7 |
| 20260506200729 | 81 | 219 | 0.0 | 0.0 | 0.00 | 0.00 | 0.00 | 22 | 1014.8 |
| 20260506200629 | 81 | 219 | 0.0 | 0.0 | 0.00 | 0.00 | 0.00 | 23 | 1014.7 |
| 20260506200559 | 81 | 219 | 0.0 | 0.0 | 0.00 | 0.00 | 0.00 | 21 | 1014.7 |
| 20260506200439 | 81 | 219 | 0.0 | 9.0 | 0.00 | 0.00 | 0.00 | 22 | 1014.7 |
| 20260506200319 | 82 | 219 | 0.0 | 9.0 | 0.00 | 0.00 | 0.00 | 22 | 1014.7 |
| 20260506200249 | 82 | 219 | 0.0 | 9.0 | 0.00 | 0.00 | 0.00 | 22 | 1014.7 |
| 20260506200129 | 82 | 219 | 0.0 | 9.0 | 0.00 | 0.00 | 0.00 | 22 | 1014.8 |
| 20260506200034 | 82 | 219 | 0.0 | 9.0 | 0.00 | 0.00 | 0.00 | 21 | 1014.8 |
| 20260506195924 | 82 | 215 | 0.0 | 9.0 | 0.00 | 0.00 | 0.00 | 22 | 1014.7 |
| 20260506195825 | 81 | 214 | 0.0 | 9.0 | 0.00 | 0.00 | 0.00 | 22 | 1014.8 |
| 20260506195735 | 81 | 255 | 2.0 | 9.0 | 0.00 | 0.00 | 0.00 | 22 | 1014.9 |
| 20260506195616 | 81 | 256 | 2.0 | 9.0 | 0.00 | 0.00 | 0.00 | 22 | 1014.9 |
| 20260506195538 | 81 | 198 | 0.0 | 5.0 | 0.00 | 0.00 | 0.00 | 23 | 1014.9 |
| 20260506195429 | 81 | 198 | 0.0 | 5.0 | 0.00 | 0.00 | 0.00 | 22 | 1014.9 |
| 20260506195330 | 81 | 198 | 0.0 | 5.0 | 0.00 | 0.00 | 0.00 | 22 | 1014.9 |
| 20260506195238 | 81 | 198 | 0.0 | 5.0 | 0.00 | 0.00 | 0.00 | 22 | 1014.9 |
| 20260506195120 | 81 | 197 | 0.0 | 6.0 | 0.00 | 0.00 | 0.00 | 23 | 1014.8 |
| 20260506195021 | 81 | 197 | 1.0 | 6.0 | 0.00 | 0.00 | 0.00 | 23 | 1014.9 |
| 20260506194930 | 81 | 198 | 1.0 | 6.0 | 0.00 | 0.00 | 0.00 | 23 | 1014.8 |
| 20260506194831 | 80 | 198 | 0.0 | 7.0 | 0.00 | 0.00 | 0.00 | 23 | 1014.9 |
| 20260506194716 | 81 | 198 | 2.0 | 7.0 | 0.00 | 0.00 | 0.00 | 23 | 1014.9 |
| 20260506194626 | 81 | 198 | 2.0 | 7.0 | 0.00 | 0.00 | 0.00 | 22 | 1014.8 |
| 20260506194546 | 81 | 196 | 2.0 | 7.0 | 0.00 | 0.00 | 0.00 | 23 | 1014.9 |
| 20260506194434 | 81 | 204 | 2.0 | 7.0 | 0.00 | 0.00 | 0.00 | 23 | 1014.9 |
| 20260506194315 | 81 | 204 | 2.0 | 7.0 | 0.00 | 0.00 | 0.00 | 22 | 1014.9 |
| 20260506194218 | 81 | 205 | 3.0 | 7.0 | 0.00 | 0.00 | 0.00 | 22 | 1015.0 |
| 20260506194151 | 82 | 206 | 4.0 | 7.0 | 0.00 | 0.00 | 0.00 | 22 | 1015.0 |
| 20260506194032 | 82 | 205 | 4.0 | 7.0 | 0.00 | 0.00 | 0.00 | 23 | 1015.0 |
| 20260506193915 | 81 | 203 | 2.0 | 7.0 | 0.00 | 0.00 | 0.00 | 23 | 1015.0 |
| 20260506193816 | 81 | 204 | 2.0 | 7.0 | 0.00 | 0.00 | 0.00 | 23 | 1015.0 |
| 20260506193726 | 81 | 204 | 2.0 | 7.0 | 0.00 | 0.00 | 0.00 | 23 | 1015.1 |
| 20260506193628 | 81 | 198 | 1.0 | 5.0 | 0.00 | 0.00 | 0.00 | 23 | 1015.1 |
| 20260506193535 | 81 | 157 | 0.0 | 5.0 | 0.00 | 0.00 | 0.00 | 23 | 1015.1 |
| 20260506193420 | 81 | 157 | 0.0 | 5.0 | 0.00 | 0.00 | 0.00 | 23 | 1015.1 |
| 20260506193323 | 81 | 157 | 1.0 | 5.0 | 0.00 | 0.00 | 0.00 | 24 | 1015.1 |
| 20260506193233 | 81 | 157 | 1.0 | 5.0 | 0.00 | 0.00 | 0.00 | 24 | 1015.1 |
| 20260506193115 | 82 | 162 | 0.0 | 3.0 | 0.00 | 0.00 | 0.00 | 24 | 1015.1 |
| 20260506193016 | 82 | 162 | 0.0 | 3.0 | 0.00 | 0.00 | 0.00 | 23 | 1015.1 |
| 20260506192924 | 82 | 162 | 1.0 | 3.0 | 0.00 | 0.00 | 0.00 | 22 | 1015.1 |
| 20260506192829 | 82 | 162 | 0.0 | 2.0 | 0.00 | 0.00 | 0.00 | 22 | 1015.1 |
| 20260506192738 | 82 | 162 | 0.0 | 2.0 | 0.00 | 0.00 | 0.00 | 23 | 1015.1 |
| 20260506192620 | 82 | 161 | 0.0 | 1.0 | 0.00 | 0.00 | 0.00 | 24 | 1015.1 |
| 20260506192542 | 81 | 161 | 0.0 | 1.0 | 0.00 | 0.00 | 0.00 | 25 | 1015.1 |
| 20260506192430 | 80 | 161 | 0.0 | 0.0 | 0.00 | 0.00 | 0.00 | 23 | 1015.1 |
| 20260506192332 | 80 | 161 | 0.0 | 0.0 | 0.00 | 0.00 | 0.00 | 24 | 1015.3 |
| 20260506192218 | 80 | 335 | 0.0 | 3.0 | 0.00 | 0.00 | 0.00 | 23 | 1015.3 |
| 20260506192120 | 80 | 345 | 0.0 | 4.0 | 0.00 | 0.00 | 0.00 | 23 | 1015.3 |
| 20260506192029 | 80 | 350 | 0.0 | 4.0 | 0.00 | 0.00 | 0.00 | 23 | 1015.3 |
| 20260506191959 | 80 | 350 | 0.0 | 4.0 | 0.00 | 0.00 | 0.00 | 23 | 1015.3 |
| 20260506191837 | 80 | 350 | 0.0 | 5.0 | 0.00 | 0.00 | 0.00 | 24 | 1015.3 |
| 20260506191716 | 80 | 281 | 0.0 | 7.0 | 0.00 | 0.00 | 0.00 | 24 | 1015.3 |
| 20260506191625 | 80 | 279 | 0.0 | 7.0 | 0.00 | 0.00 | 0.00 | 23 | 1015.3 |
| 20260506191526 | 80 | 279 | 0.0 | 7.0 | 0.00 | 0.00 | 0.00 | 26 | 1015.2 |
| 20260506191438 | 80 | 278 | 1.0 | 7.0 | 0.00 | 0.00 | 0.00 | 24 | 1015.2 |
| 20260506191321 | 80 | 277 | 0.0 | 7.0 | 0.00 | 0.00 | 0.00 | 24 | 1015.3 |
| 20260506191223 | 80 | 275 | 1.0 | 7.0 | 0.00 | 0.00 | 0.00 | 24 | 1015.3 |
| 20260506191131 | 80 | 260 | 2.0 | 7.0 | 0.00 | 0.00 | 0.00 | 23 | 1015.3 |
| 20260506191034 | 80 | 257 | 2.0 | 7.0 | 0.00 | 0.00 | 0.00 | 24 | 1015.2 |
| 20260506190916 | 80 | 259 | 0.0 | 4.0 | 0.00 | 0.00 | 0.00 | 25 | 1015.2 |
| 20260506190822 | 79 | 257 | 0.0 | 2.0 | 0.00 | 0.00 | 0.00 | 25 | 1015.2 |
| 20260506190732 | 79 | 257 | 0.0 | 2.0 | 0.00 | 0.00 | 0.00 | 25 | 1015.3 |
| 20260506190635 | 79 | 258 | 0.0 | 1.0 | 0.00 | 0.00 | 0.00 | 25 | 1015.2 |
| 20260506190517 | 79 | 258 | 0.0 | 6.0 | 0.00 | 0.00 | 0.00 | 26 | 1015.3 |
| 20260506190420 | 79 | 258 | 0.0 | 6.0 | 0.00 | 0.00 | 0.00 | 26 | 1015.2 |
| 20260506190330 | 79 | 258 | 0.0 | 6.0 | 0.00 | 0.00 | 0.00 | 26 | 1015.2 |
| 20260506190235 | 79 | 258 | 0.0 | 6.0 | 0.00 | 0.00 | 0.00 | 27 | 1015.2 |
| 20260506190116 | 79 | 258 | 0.0 | 6.0 | 0.00 | 0.00 | 0.00 | 27 | 1015.3 |
| 20260506190037 | 79 | 258 | 0.0 | 6.0 | 0.00 | 0.00 | 0.00 | 28 | 1015.3 |
| 20260506185925 | 79 | 258 | 0.0 | 7.0 | 0.00 | 0.00 | 0.00 | 28 | 1015.3 |
| 20260506185833 | 78 | 258 | 1.0 | 8.0 | 0.00 | 0.00 | 0.00 | 26 | 1015.4 |
| 20260506185716 | 79 | 258 | 1.0 | 8.0 | 0.00 | 0.00 | 0.00 | 25 | 1015.4 |
| 20260506185622 | 79 | 247 | 0.0 | 8.0 | 0.00 | 0.00 | 0.00 | 26 | 1015.3 |
| 20260506185532 | 79 | 247 | 1.0 | 8.0 | 0.00 | 0.00 | 0.00 | 25 | 1015.4 |
| 20260506185434 | 79 | 248 | 1.0 | 8.0 | 0.00 | 0.00 | 0.00 | 25 | 1015.5 |
| 20260506185334 | 79 | 248 | 2.0 | 8.0 | 0.00 | 0.00 | 0.00 | 25 | 1015.5 |
| 20260506185236 | 79 | 248 | 4.0 | 8.0 | 0.00 | 0.00 | 0.00 | 25 | 1015.5 |
| 20260506185117 | 80 | 250 | 4.0 | 8.0 | 0.00 | 0.00 | 0.00 | 25 | 1015.6 |
| 20260506185023 | 80 | 248 | 2.0 | 8.0 | 0.00 | 0.00 | 0.00 | 26 | 1015.5 |
| 20260506184924 | 79 | 238 | 0.0 | 5.0 | 0.00 | 0.00 | 0.00 | 25 | 1015.6 |
| 20260506184833 | 80 | 238 | 0.0 | 6.0 | 0.00 | 0.00 | 0.00 | 25 | 1015.6 |
| 20260506184715 | 79 | 238 | 0.0 | 7.0 | 0.00 | 0.00 | 0.00 | 26 | 1015.6 |
| 20260506184617 | 79 | 238 | 0.0 | 7.0 | 0.00 | 0.00 | 0.00 | 25 | 1015.6 |
| 20260506184519 | 79 | 238 | 0.0 | 7.0 | 0.00 | 0.00 | 0.00 | 26 | 1015.6 |
| 20260506184450 | 79 | 236 | 0.0 | 7.0 | 0.00 | 0.00 | 0.00 | 26 | 1015.6 |
| 20260506184329 | 79 | 236 | 0.0 | 7.0 | 0.00 | 0.00 | 0.00 | 27 | 1015.6 |
| 20260506184237 | 79 | 236 | 1.0 | 7.0 | 0.00 | 0.00 | 0.00 | 26 | 1015.8 |
| 20260506184117 | 79 | 235 | 2.0 | 7.0 | 0.00 | 0.00 | 0.00 | 26 | 1015.8 |
| 20260506184019 | 79 | 233 | 3.0 | 7.0 | 0.00 | 0.00 | 0.00 | 26 | 1015.7 |
| 20260506183928 | 79 | 228 | 3.0 | 7.0 | 0.00 | 0.00 | 0.00 | 25 | 1015.8 |
| 20260506183830 | 79 | 181 | 1.0 | 7.0 | 0.00 | 0.00 | 0.00 | 26 | 1015.8 |
| 20260506183716 | 79 | 165 | 2.0 | 7.0 | 0.00 | 0.00 | 0.00 | 25 | 1015.8 |
| 20260506183645 | 79 | 165 | 3.0 | 7.0 | 0.00 | 0.00 | 0.00 | 26 | 1015.9 |
| 20260506183524 | 79 | 165 | 3.0 | 7.0 | 0.00 | 0.00 | 0.00 | 26 | 1015.8 |
| 20260506183433 | 79 | 155 | 2.0 | 7.0 | 0.00 | 0.00 | 0.00 | 25 | 1015.9 |
| 20260506183335 | 79 | 187 | 2.0 | 7.0 | 0.00 | 0.00 | 0.00 | 25 | 1015.8 |
| 20260506183216 | 79 | 188 | 1.0 | 7.0 | 0.00 | 0.00 | 0.00 | 25 | 1015.9 |
| 20260506183122 | 79 | 188 | 0.0 | 6.0 | 0.00 | 0.00 | 0.00 | 25 | 1015.8 |
| 20260506183051 | 79 | 188 | 0.0 | 6.0 | 0.00 | 0.00 | 0.00 | 25 | 1015.8 |
| 20260506182932 | 79 | 187 | 0.0 | 6.0 | 0.00 | 0.00 | 0.00 | 26 | 1015.8 |
| 20260506182818 | 79 | 187 | 0.0 | 6.0 | 0.00 | 0.00 | 0.00 | 26 | 1015.8 |
| 20260506182720 | 79 | 186 | 1.0 | 6.0 | 0.00 | 0.00 | 0.00 | 25 | 1015.6 |
| 20260506182629 | 79 | 184 | 1.0 | 6.0 | 0.00 | 0.00 | 0.00 | 27 | 1015.7 |
| 20260506182529 | 79 | 179 | 2.0 | 6.0 | 0.00 | 0.00 | 0.00 | 27 | 1015.8 |
| 20260506182435 | 79 | 179 | 1.0 | 6.0 | 0.00 | 0.00 | 0.00 | 26 | 1015.8 |
| 20260506182322 | 78 | 209 | 0.0 | 4.0 | 0.00 | 0.00 | 0.00 | 26 | 1015.8 |
| 20260506182225 | 78 | 227 | 0.0 | 4.0 | 0.00 | 0.00 | 0.00 | 27 | 1015.8 |
| 20260506182125 | 78 | 227 | 1.0 | 4.0 | 0.00 | 0.00 | 0.00 | 26 | 1015.8 |
| 20260506182034 | 78 | 227 | 2.0 | 4.0 | 0.00 | 0.00 | 0.00 | 26 | 1015.8 |
| 20260506181935 | 78 | 227 | 1.0 | 4.0 | 0.00 | 0.00 | 0.00 | 26 | 1015.8 |
| 20260506181821 | 78 | 229 | 0.0 | 4.0 | 0.00 | 0.00 | 0.00 | 26 | 1015.9 |
| 20260506181722 | 78 | 229 | 0.0 | 4.0 | 0.00 | 0.00 | 0.00 | 27 | 1015.9 |
| 20260506181631 | 78 | 228 | 1.0 | 5.0 | 0.00 | 0.00 | 0.00 | 28 | 1015.9 |
| 20260506181533 | 78 | 228 | 1.0 | 5.0 | 0.00 | 0.00 | 0.00 | 27 | 1015.9 |
| 20260506181434 | 78 | 228 | 1.0 | 5.0 | 0.00 | 0.00 | 0.00 | 28 | 1015.9 |
| 20260506181320 | 77 | 230 | 0.0 | 6.0 | 0.00 | 0.00 | 0.00 | 29 | 1015.9 |
| 20260506181224 | 77 | 229 | 1.0 | 6.0 | 0.00 | 0.00 | 0.00 | 27 | 1015.9 |
| 20260506181131 | 77 | 229 | 1.0 | 6.0 | 0.00 | 0.00 | 0.00 | 28 | 1015.9 |
| 20260506181033 | 77 | 229 | 1.0 | 6.0 | 0.00 | 0.00 | 0.00 | 28 | 1016.0 |
| 20260506180943 | 77 | 229 | 1.0 | 6.0 | 0.00 | 0.00 | 0.00 | 29 | 1016.0 |
| 20260506180823 | 77 | 229 | 1.0 | 6.0 | 0.00 | 0.00 | 0.00 | 27 | 1015.9 |
| 20260506180725 | 78 | 227 | 2.0 | 6.0 | 0.00 | 0.00 | 0.00 | 27 | 1016.0 |
| 20260506180635 | 78 | 227 | 2.0 | 6.0 | 0.00 | 0.00 | 0.00 | 27 | 1016.0 |
| 20260506180517 | 78 | 221 | 0.0 | 6.0 | 0.00 | 0.00 | 0.00 | 28 | 1016.0 |
| 20260506180420 | 78 | 230 | 0.0 | 2.0 | 0.00 | 0.00 | 0.00 | 28 | 1016.0 |
| 20260506180322 | 77 | 230 | 0.0 | 2.0 | 0.00 | 0.00 | 0.00 | 28 | 1015.9 |
| 20260506180232 | 77 | 230 | 0.0 | 2.0 | 0.00 | 0.00 | 0.00 | 29 | 1015.9 |
| 20260506180132 | 78 | 230 | 0.0 | 3.0 | 0.00 | 0.00 | 0.00 | 28 | 1016.1 |
| 20260506180032 | 77 | 230 | 0.0 | 3.0 | 0.00 | 0.00 | 0.00 | 29 | 1016.0 |
| 20260506175942 | 77 | 231 | 0.0 | 4.0 | 0.00 | 0.00 | 0.00 | 30 | 1016.1 |
| 20260506175833 | 77 | 285 | 0.0 | 4.0 | 0.00 | 0.00 | 0.00 | 29 | 1016.1 |
| 20260506175735 | 77 | 284 | 0.0 | 4.0 | 0.00 | 0.00 | 0.00 | 29 | 1016.2 |
| 20260506175617 | 77 | 284 | 0.0 | 4.0 | 0.00 | 0.00 | 0.00 | 28 | 1016.2 |
| 20260506175519 | 77 | 284 | 1.0 | 4.0 | 0.00 | 0.00 | 0.00 | 28 | 1016.1 |
| 20260506175428 | 77 | 284 | 1.0 | 4.0 | 0.00 | 0.00 | 0.00 | 28 | 1016.0 |
| 20260506175329 | 77 | 284 | 1.0 | 4.0 | 0.00 | 0.00 | 0.00 | 29 | 1016.1 |
| 20260506175242 | 77 | 284 | 2.0 | 4.0 | 0.00 | 0.00 | 0.00 | 28 | 1016.1 |
| 20260506175128 | 77 | 285 | 1.0 | 4.0 | 0.00 | 0.00 | 0.00 | 28 | 1016.2 |
| 20260506175029 | 78 | 285 | 0.0 | 4.0 | 0.00 | 0.00 | 0.00 | 28 | 1016.1 |
| 20260506174938 | 78 | 289 | 0.0 | 2.0 | 0.00 | 0.00 | 0.00 | 28 | 1016.2 |
| 20260506174818 | 78 | 288 | 0.0 | 2.0 | 0.00 | 0.00 | 0.00 | 28 | 1016.2 |
| 20260506174720 | 78 | 288 | 0.0 | 2.0 | 0.00 | 0.00 | 0.00 | 29 | 1016.1 |
| 20260506174627 | 78 | 288 | 0.0 | 2.0 | 0.00 | 0.00 | 0.00 | 28 | 1016.1 |
| 20260506174528 | 78 | 288 | 0.0 | 2.0 | 0.00 | 0.00 | 0.00 | 28 | 1016.1 |
| 20260506174440 | 77 | 288 | 0.0 | 2.0 | 0.00 | 0.00 | 0.00 | 28 | 1016.1 |
| 20260506174321 | 78 | 288 | 0.0 | 0.0 | 0.00 | 0.00 | 0.00 | 28 | 1016.1 |
| 20260506174223 | 78 | 288 | 0.0 | 1.0 | 0.00 | 0.00 | 0.00 | 28 | 1016.2 |
| 20260506174151 | 78 | 288 | 0.0 | 1.0 | 0.00 | 0.00 | 0.00 | 29 | 1016.2 |
| 20260506174041 | 78 | 288 | 0.0 | 1.0 | 0.00 | 0.00 | 0.00 | 29 | 1016.2 |
| 20260506173922 | 78 | 288 | 0.0 | 4.0 | 0.00 | 0.00 | 0.00 | 28 | 1016.2 |
| 20260506173822 | 78 | 288 | 0.0 | 4.0 | 0.00 | 0.00 | 0.00 | 29 | 1016.2 |
| 20260506173728 | 78 | 288 | 0.0 | 5.0 | 0.00 | 0.00 | 0.00 | 34 | 1016.1 |
| 20260506173637 | 77 | 288 | 0.0 | 5.0 | 0.00 | 0.00 | 0.00 | 29 | 1016.1 |
| 20260506173518 | 77 | 288 | 0.0 | 5.0 | 0.00 | 0.00 | 0.00 | 29 | 1016.2 |
| 20260506173447 | 77 | 287 | 0.0 | 5.0 | 0.00 | 0.00 | 0.00 | 29 | 1016.2 |
| 20260506173328 | 76 | 286 | 0.0 | 6.0 | 0.00 | 0.00 | 0.00 | 29 | 1016.2 |
| 20260506173258 | 76 | 286 | 0.0 | 6.0 | 0.00 | 0.00 | 0.00 | 30 | 1016.1 |
| 20260506173118 | 76 | 287 | 1.0 | 6.0 | 0.00 | 0.00 | 0.00 | 29 | 1016.1 |
| 20260506173024 | 76 | 286 | 2.0 | 6.0 | 0.00 | 0.00 | 0.00 | 29 | 1016.1 |
| 20260506172925 | 76 | 286 | 3.0 | 6.0 | 0.00 | 0.00 | 0.00 | 29 | 1016.1 |
| 20260506172833 | 76 | 286 | 2.0 | 6.0 | 0.00 | 0.00 | 0.00 | 30 | 1016.1 |
| 20260506172715 | 76 | 285 | 1.0 | 6.0 | 0.00 | 0.00 | 0.00 | 30 | 1016.1 |
| 20260506172618 | 76 | 285 | 2.0 | 6.0 | 0.00 | 0.00 | 0.00 | 30 | 1016.1 |
| 20260506172521 | 76 | 286 | 2.0 | 6.0 | 0.00 | 0.00 | 0.00 | 30 | 1016.1 |
| 20260506172432 | 76 | 271 | 2.0 | 6.0 | 0.00 | 0.00 | 0.00 | 29 | 1016.1 |
| 20260506172402 | 76 | 271 | 2.0 | 6.0 | 0.00 | 0.00 | 0.00 | 30 | 1016.1 |
| 20260506172223 | 76 | 263 | 2.0 | 6.0 | 0.00 | 0.00 | 0.00 | 30 | 1016.1 |
| 20260506172124 | 76 | 226 | 1.0 | 5.0 | 0.00 | 0.00 | 0.00 | 30 | 1016.2 |
| 20260506172027 | 75 | 297 | 0.0 | 5.0 | 0.00 | 0.00 | 0.00 | 31 | 1016.1 |
| 20260506171936 | 75 | 297 | 1.0 | 6.0 | 0.00 | 0.00 | 0.00 | 31 | 1016.1 |
| 20260506171822 | 75 | 298 | 1.0 | 6.0 | 0.00 | 0.00 | 0.00 | 32 | 1016.2 |
| 20260506171723 | 75 | 251 | 2.0 | 6.0 | 0.00 | 0.00 | 0.00 | 30 | 1016.2 |
| 20260506171624 | 75 | 250 | 2.0 | 6.0 | 0.00 | 0.00 | 0.00 | 30 | 1016.1 |
| 20260506171534 | 75 | 251 | 1.0 | 6.0 | 0.00 | 0.00 | 0.00 | 30 | 1016.2 |
| 20260506171435 | 76 | 338 | 0.0 | 6.0 | 0.00 | 0.00 | 0.00 | 30 | 1016.2 |
| 20260506171337 | 76 | 346 | 1.0 | 6.0 | 0.00 | 0.00 | 0.00 | 30 | 1016.1 |
| 20260506171228 | 76 | 347 | 2.0 | 6.0 | 0.00 | 0.00 | 0.00 | 30 | 1016.2 |
| 20260506171129 | 76 | 354 | 2.0 | 6.0 | 0.00 | 0.00 | 0.00 | 30 | 1016.2 |
| 20260506171040 | 76 | 1 | 1.0 | 6.0 | 0.00 | 0.00 | 0.00 | 32 | 1016.2 |
| 20260506170939 | 76 | 1 | 1.0 | 6.0 | 0.00 | 0.00 | 0.00 | 33 | 1016.1 |
| 20260506170847 | 75 | 333 | 1.0 | 6.0 | 0.00 | 0.00 | 0.00 | 34 | 1016.1 |
| 20260506170728 | 75 | 255 | 1.0 | 5.0 | 0.00 | 0.00 | 0.00 | 35 | 1016.2 |
| 20260506170630 | 75 | 250 | 2.0 | 5.0 | 0.00 | 0.00 | 0.00 | 35 | 1016.2 |
| 20260506170516 | 74 | 232 | 1.0 | 5.0 | 0.00 | 0.00 | 0.00 | 31 | 1016.2 |
| 20260506170426 | 74 | 231 | 1.0 | 5.0 | 0.00 | 0.00 | 0.00 | 31 | 1016.2 |
| 20260506170329 | 74 | 231 | 1.0 | 5.0 | 0.00 | 0.00 | 0.00 | 31 | 1016.2 |
| 20260506170258 | 74 | 231 | 1.0 | 5.0 | 0.00 | 0.00 | 0.00 | 31 | 1016.2 |
| 20260506170137 | 74 | 228 | 0.0 | 5.0 | 0.00 | 0.00 | 0.00 | 31 | 1016.1 |
| 20260506170037 | 74 | 228 | 1.0 | 5.0 | 0.00 | 0.00 | 0.00 | 30 | 1016.1 |
| 20260506165924 | 75 | 228 | 2.0 | 5.0 | 0.00 | 0.00 | 0.00 | 30 | 1016.1 |
| 20260506165830 | 75 | 228 | 3.0 | 5.0 | 0.00 | 0.00 | 0.00 | 30 | 1016.1 |
| 20260506165740 | 75 | 226 | 2.0 | 5.0 | 0.00 | 0.00 | 0.00 | 30 | 1016.1 |
| 20260506165623 | 75 | 255 | 0.0 | 3.0 | 0.00 | 0.00 | 0.00 | 32 | 1016.1 |
| 20260506165524 | 75 | 255 | 1.0 | 3.0 | 0.00 | 0.00 | 0.00 | 33 | 1016.1 |
| 20260506165427 | 74 | 254 | 0.0 | 2.0 | 0.00 | 0.00 | 0.00 | 31 | 1016.1 |
| 20260506165356 | 74 | 252 | 0.0 | 2.0 | 0.00 | 0.00 | 0.00 | 31 | 1016.2 |
| 20260506165221 | 74 | 252 | 0.0 | 2.0 | 0.00 | 0.00 | 0.00 | 32 | 1016.1 |
| 20260506165131 | 74 | 252 | 0.0 | 3.0 | 0.00 | 0.00 | 0.00 | 32 | 1016.1 |
| 20260506165032 | 74 | 252 | 0.0 | 3.0 | 0.00 | 0.00 | 0.00 | 30 | 1016.2 |
| 20260506164932 | 74 | 252 | 0.0 | 3.0 | 0.00 | 0.00 | 0.00 | 30 | 1016.1 |
| 20260506164842 | 74 | 252 | 0.0 | 3.0 | 0.00 | 0.00 | 0.00 | 32 | 1016.1 |
| 20260506164716 | 74 | 252 | 0.0 | 4.0 | 0.00 | 0.00 | 0.00 | 32 | 1016.1 |
| 20260506164629 | 74 | 252 | 0.0 | 4.0 | 0.00 | 0.00 | 0.00 | 33 | 1016.1 |
| 20260506164556 | 73 | 252 | 0.0 | 4.0 | 0.00 | 0.00 | 0.00 | 31 | 1016.0 |
| 20260506164416 | 74 | 252 | 0.0 | 4.0 | 0.00 | 0.00 | 0.00 | 31 | 1016.0 |
| 20260506164317 | 74 | 252 | 0.0 | 5.0 | 0.00 | 0.00 | 0.00 | 33 | 1016.0 |
| 20260506164226 | 74 | 252 | 0.0 | 5.0 | 0.00 | 0.00 | 0.00 | 31 | 1016.0 |
| 20260506164128 | 74 | 252 | 1.0 | 5.0 | 0.00 | 0.00 | 0.00 | 32 | 1015.9 |
| 20260506164058 | 74 | 255 | 1.0 | 5.0 | 0.00 | 0.00 | 0.00 | 31 | 1015.9 |
| 20260506163921 | 74 | 273 | 1.0 | 5.0 | 0.00 | 0.00 | 0.00 | 32 | 1016.0 |
| 20260506163822 | 74 | 273 | 1.0 | 5.0 | 0.00 | 0.00 | 0.00 | 32 | 1015.9 |
| 20260506163733 | 74 | 273 | 0.0 | 5.0 | 0.00 | 0.00 | 0.00 | 37 | 1015.9 |
| 20260506163635 | 73 | 273 | 1.0 | 5.0 | 0.00 | 0.00 | 0.00 | 32 | 1015.9 |
| 20260506163516 | 73 | 273 | 1.0 | 5.0 | 0.00 | 0.00 | 0.00 | 32 | 1015.9 |
| 20260506163417 | 73 | 272 | 0.0 | 2.0 | 0.00 | 0.00 | 0.00 | 34 | 1015.9 |
| 20260506163330 | 73 | 272 | 0.0 | 2.0 | 0.00 | 0.00 | 0.00 | 33 | 1015.9 |
| 20260506163231 | 73 | 272 | 0.0 | 2.0 | 0.00 | 0.00 | 0.00 | 32 | 1015.9 |
| 20260506163142 | 73 | 272 | 0.0 | 2.0 | 0.00 | 0.00 | 0.00 | 32 | 1015.9 |
| 20260506163043 | 73 | 272 | 0.0 | 4.0 | 0.00 | 0.00 | 0.00 | 32 | 1015.8 |
| 20260506162922 | 73 | 272 | 0.0 | 4.0 | 0.00 | 0.00 | 0.00 | 32 | 1015.9 |
| 20260506162831 | 73 | 272 | 0.0 | 4.0 | 0.00 | 0.00 | 0.00 | 32 | 1015.9 |
| 20260506162717 | 73 | 272 | 0.0 | 6.0 | 0.00 | 0.00 | 0.00 | 33 | 1015.9 |
| 20260506162620 | 73 | 272 | 0.0 | 6.0 | 0.00 | 0.00 | 0.00 | 33 | 1015.9 |
| 20260506162521 | 73 | 272 | 0.0 | 6.0 | 0.00 | 0.00 | 0.00 | 33 | 1015.9 |
| 20260506162430 | 73 | 272 | 1.0 | 6.0 | 0.00 | 0.00 | 0.00 | 33 | 1015.9 |
| 20260506162333 | 73 | 272 | 1.0 | 6.0 | 0.00 | 0.00 | 0.00 | 33 | 1015.8 |
| 20260506162235 | 72 | 272 | 1.0 | 6.0 | 0.00 | 0.00 | 0.00 | 34 | 1015.8 |
| 20260506162121 | 73 | 270 | 2.0 | 6.0 | 0.00 | 0.00 | 0.00 | 33 | 1015.9 |
| 20260506162030 | 72 | 271 | 1.0 | 6.0 | 0.00 | 0.00 | 0.00 | 33 | 1015.8 |
| 20260506161932 | 72 | 268 | 1.0 | 5.0 | 0.00 | 0.00 | 0.00 | 33 | 1015.9 |
| 20260506161834 | 72 | 268 | 2.0 | 5.0 | 0.00 | 0.00 | 0.00 | 33 | 1015.9 |
| 20260506161716 | 72 | 264 | 1.0 | 5.0 | 0.00 | 0.00 | 0.00 | 33 | 1015.9 |
| 20260506161626 | 72 | 31 | 0.0 | 5.0 | 0.00 | 0.00 | 0.00 | 33 | 1015.8 |
| 20260506161532 | 72 | 68 | 0.0 | 5.0 | 0.00 | 0.00 | 0.00 | 34 | 1015.8 |
| 20260506161440 | 72 | 68 | 0.0 | 5.0 | 0.00 | 0.00 | 0.00 | 35 | 1015.8 |
| 20260506161343 | 72 | 210 | 0.0 | 5.0 | 0.00 | 0.00 | 0.00 | 35 | 1015.8 |
| 20260506161253 | 72 | 214 | 0.0 | 5.0 | 0.00 | 0.00 | 0.00 | 34 | 1015.8 |
| 20260506161131 | 72 | 214 | 1.0 | 5.0 | 0.00 | 0.00 | 0.00 | 33 | 1015.7 |
| 20260506161041 | 72 | 214 | 1.0 | 6.0 | 0.00 | 0.00 | 0.00 | 33 | 1015.7 |
| 20260506160923 | 72 | 214 | 1.0 | 6.0 | 0.00 | 0.00 | 0.00 | 34 | 1015.9 |
| 20260506160828 | 72 | 220 | 1.0 | 6.0 | 0.00 | 0.00 | 0.00 | 34 | 1015.9 |
| 20260506160757 | 71 | 219 | 0.0 | 6.0 | 0.00 | 0.00 | 0.00 | 34 | 1016.0 |
| 20260506160617 | 71 | 219 | 0.0 | 6.0 | 0.00 | 0.00 | 0.00 | 34 | 1016.0 |
| 20260506160540 | 71 | 219 | 1.0 | 6.0 | 0.00 | 0.00 | 0.00 | 34 | 1016.1 |
| 20260506160427 | 71 | 219 | 2.0 | 6.0 | 0.00 | 0.00 | 0.00 | 34 | 1016.0 |
| 20260506160329 | 71 | 219 | 2.0 | 6.0 | 0.00 | 0.00 | 0.00 | 34 | 1016.0 |
| 20260506160230 | 71 | 219 | 2.0 | 6.0 | 0.00 | 0.00 | 0.00 | 34 | 1015.9 |
| 20260506160116 | 71 | 278 | 1.0 | 3.0 | 0.00 | 0.00 | 0.00 | 35 | 1015.9 |
| 20260506160035 | 71 | 278 | 1.0 | 3.0 | 0.00 | 0.00 | 0.00 | 35 | 1015.9 |
| 20260506155953 | 71 | 278 | 0.0 | 3.0 | 0.00 | 0.00 | 0.00 | 35 | 1015.9 |
| 20260506155901 | 71 | 278 | 1.0 | 3.0 | 0.00 | 0.00 | 0.00 | 35 | 1015.9 |
| 20260506155722 | 71 | 278 | 1.0 | 3.0 | 0.00 | 0.00 | 0.00 | 35 | 1015.9 |
| 20260506155625 | 71 | 279 | 1.0 | 2.0 | 0.00 | 0.00 | 0.00 | 36 | 1015.9 |
| 20260506155526 | 70 | 278 | 0.0 | 4.0 | 0.00 | 0.00 | 0.00 | 36 | 1015.9 |
| 20260506155439 | 70 | 278 | 0.0 | 4.0 | 0.00 | 0.00 | 0.00 | 36 | 1015.9 |
| 20260506155321 | 70 | 278 | 0.0 | 4.0 | 0.00 | 0.00 | 0.00 | 36 | 1016.0 |
| 20260506155223 | 70 | 278 | 0.0 | 4.0 | 0.00 | 0.00 | 0.00 | 36 | 1016.0 |
| 20260506155130 | 70 | 279 | 0.0 | 5.0 | 0.00 | 0.00 | 0.00 | 36 | 1016.0 |
| 20260506155101 | 70 | 279 | 0.0 | 5.0 | 0.00 | 0.00 | 0.00 | 36 | 1016.0 |
| 20260506154922 | 70 | 279 | 0.0 | 5.0 | 0.00 | 0.00 | 0.00 | 36 | 1016.0 |
| 20260506154823 | 70 | 280 | 1.0 | 5.0 | 0.00 | 0.00 | 0.00 | 36 | 1016.0 |
| 20260506154730 | 70 | 281 | 1.0 | 5.0 | 0.00 | 0.00 | 0.00 | 37 | 1015.9 |
| 20260506154637 | 70 | 282 | 0.0 | 5.0 | 0.00 | 0.00 | 0.00 | 37 | 1016.0 |
| 20260506154519 | 70 | 282 | 1.0 | 5.0 | 0.00 | 0.00 | 0.00 | 37 | 1016.0 |
| 20260506154440 | 69 | 282 | 1.0 | 5.0 | 0.00 | 0.00 | 0.00 | 37 | 1016.1 |
| 20260506154329 | 69 | 282 | 1.0 | 5.0 | 0.00 | 0.00 | 0.00 | 37 | 1016.1 |
| 20260506154250 | 69 | 243 | 0.0 | 4.0 | 0.00 | 0.00 | 0.00 | 37 | 1016.1 |
| 20260506154139 | 69 | 231 | 1.0 | 4.0 | 0.00 | 0.00 | 0.00 | 37 | 1016.1 |
| 20260506154021 | 69 | 225 | 1.0 | 4.0 | 0.00 | 0.00 | 0.00 | 37 | 1016.1 |
| 20260506153943 | 69 | 222 | 0.0 | 1.0 | 0.00 | 0.00 | 0.00 | 37 | 1016.1 |
| 20260506153832 | 69 | 222 | 0.0 | 0.0 | 0.00 | 0.00 | 0.00 | 38 | 1016.1 |
| 20260506153735 | 69 | 222 | 0.0 | 0.0 | 0.00 | 0.00 | 0.00 | 37 | 1016.1 |
| 20260506153616 | 69 | 221 | 0.0 | 0.0 | 0.00 | 0.00 | 0.00 | 37 | 1016.1 |
| 20260506153518 | 69 | 1 | 0.0 | 0.0 | 0.00 | 0.00 | 0.00 | 38 | 1016.1 |
| 20260506153432 | 69 | 1 | 0.0 | 0.0 | 0.00 | 0.00 | 0.00 | 38 | 1016.0 |
| 20260506153334 | 69 | 1 | 0.0 | 0.0 | 0.00 | 0.00 | 0.00 | 37 | 1016.1 |
| 20260506153215 | 69 | 6 | 0.0 | 0.0 | 0.00 | 0.00 | 0.00 | 37 | 1016.1 |
| 20260506153124 | 69 | 6 | 0.0 | 0.0 | 0.00 | 0.00 | 0.00 | 38 | 1016.0 |
| 20260506153027 | 69 | 6 | 0.0 | 0.0 | 0.00 | 0.00 | 0.00 | 39 | 1016.1 |
| 20260506152935 | 69 | 6 | 0.0 | 1.0 | 0.00 | 0.00 | 0.00 | 38 | 1016.0 |
| 20260506152820 | 68 | 6 | 0.0 | 3.0 | 0.00 | 0.00 | 0.00 | 38 | 1016.1 |
| 20260506152721 | 68 | 6 | 0.0 | 3.0 | 0.00 | 0.00 | 0.00 | 38 | 1016.1 |
| 20260506152650 | 68 | 8 | 0.0 | 3.0 | 0.00 | 0.00 | 0.00 | 38 | 1016.1 |
| 20260506152531 | 68 | 11 | 0.0 | 3.0 | 0.00 | 0.00 | 0.00 | 38 | 1016.1 |
| 20260506152501 | 68 | 15 | 0.0 | 3.0 | 0.00 | 0.00 | 0.00 | 38 | 1016.1 |
| 20260506152322 | 68 | 25 | 0.0 | 3.0 | 0.00 | 0.00 | 0.00 | 38 | 1016.1 |
| 20260506152223 | 68 | 1 | 0.0 | 3.0 | 0.00 | 0.00 | 0.00 | 38 | 1016.1 |
| 20260506152135 | 68 | 1 | 0.0 | 3.0 | 0.00 | 0.00 | 0.00 | 38 | 1016.0 |
| 20260506152017 | 68 | 313 | 0.0 | 3.0 | 0.00 | 0.00 | 0.00 | 38 | 1016.1 |
| 20260506151917 | 68 | 314 | 0.0 | 0.0 | 0.00 | 0.00 | 0.00 | 39 | 1016.1 |
| 20260506151817 | 68 | 314 | 0.0 | 0.0 | 0.00 | 0.00 | 0.00 | 39 | 1016.1 |
| 20260506151725 | 68 | 314 | 0.0 | 0.0 | 0.00 | 0.00 | 0.00 | 38 | 1016.1 |
| 20260506151626 | 67 | 314 | 0.0 | 0.0 | 0.00 | 0.00 | 0.00 | 39 | 1016.0 |
| 20260506151541 | 67 | 314 | 0.0 | 0.0 | 0.00 | 0.00 | 0.00 | 39 | 1016.0 |
| 20260506151442 | 67 | 315 | 0.0 | 0.0 | 0.00 | 0.00 | 0.00 | 39 | 1016.0 |
| 20260506151321 | 67 | 316 | 0.0 | 0.0 | 0.00 | 0.00 | 0.00 | 40 | 1016.0 |
| 20260506151250 | 67 | 317 | 0.0 | 0.0 | 0.00 | 0.00 | 0.00 | 40 | 1016.0 |
| 20260506151131 | 67 | 317 | 0.0 | 0.0 | 0.00 | 0.00 | 0.00 | 40 | 1016.1 |
| 20260506151041 | 67 | 319 | 0.0 | 0.0 | 0.00 | 0.00 | 0.00 | 40 | 1016.1 |
| 20260506150942 | 67 | 319 | 0.0 | 0.0 | 0.00 | 0.00 | 0.00 | 40 | 1016.0 |
| 20260506150827 | 66 | 321 | 0.0 | 0.0 | 0.00 | 0.00 | 0.00 | 41 | 1016.0 |
| 20260506150737 | 66 | 321 | 0.0 | 0.0 | 0.00 | 0.00 | 0.00 | 42 | 1016.0 |
| 20260506150619 | 66 | 321 | 0.0 | 0.0 | 0.00 | 0.00 | 0.00 | 41 | 1016.1 |
| 20260506150520 | 66 | 321 | 0.0 | 0.0 | 0.00 | 0.00 | 0.00 | 41 | 1016.0 |
| 20260506150450 | 66 | 321 | 0.0 | 0.0 | 0.00 | 0.00 | 0.00 | 42 | 1016.0 |
| 20260506150331 | 66 | 321 | 0.0 | 0.0 | 0.00 | 0.00 | 0.00 | 41 | 1016.1 |
| 20260506150239 | 66 | 321 | 0.0 | 0.0 | 0.00 | 0.00 | 0.00 | 41 | 1016.1 |
| 20260506150144 | 65 | 321 | 0.0 | 0.0 | 0.00 | 0.00 | 0.00 | 42 | 1016.1 |
| 20260506150105 | 65 | 322 | 0.0 | 0.0 | 0.00 | 0.00 | 0.00 | 42 | 1016.1 |
| 20260506150001 | 65 | 322 | 0.0 | 0.0 | 0.00 | 0.00 | 0.00 | 42 | 1016.0 |
| 20260506145820 | 65 | 322 | 0.0 | 0.0 | 0.00 | 0.00 | 0.00 | 42 | 1016.0 |
| 20260506145719 | 65 | 322 | 0.0 | 0.0 | 0.00 | 0.00 | 0.00 | 43 | 1016.0 |
| 20260506145629 | 65 | 322 | 0.0 | 0.0 | 0.00 | 0.00 | 0.00 | 43 | 1016.1 |
| 20260506145531 | 64 | 322 | 0.0 | 0.0 | 0.00 | 0.00 | 0.00 | 43 | 1016.0 |
| 20260506145417 | 64 | 322 | 0.0 | 1.0 | 0.00 | 0.00 | 0.00 | 43 | 1016.0 |
| 20260506145327 | 64 | 322 | 0.0 | 1.0 | 0.00 | 0.00 | 0.00 | 43 | 1016.0 |
| 20260506145229 | 64 | 322 | 0.0 | 1.0 | 0.00 | 0.00 | 0.00 | 43 | 1016.0 |
| 20260506145131 | 64 | 322 | 0.0 | 1.0 | 0.00 | 0.00 | 0.00 | 43 | 1016.0 |
| 20260506145019 | 64 | 322 | 0.0 | 1.0 | 0.00 | 0.00 | 0.00 | 43 | 1016.0 |
| 20260506144920 | 64 | 322 | 0.0 | 1.0 | 0.00 | 0.00 | 0.00 | 43 | 1016.0 |
| 20260506144849 | 64 | 323 | 0.0 | 1.0 | 0.00 | 0.00 | 0.00 | 43 | 1016.0 |
| 20260506144734 | 64 | 323 | 0.0 | 1.0 | 0.00 | 0.00 | 0.00 | 44 | 1016.0 |
| 20260506144616 | 63 | 323 | 0.0 | 1.0 | 0.00 | 0.00 | 0.00 | 44 | 1016.0 |
| 20260506144517 | 63 | 323 | 0.0 | 1.0 | 0.00 | 0.00 | 0.00 | 44 | 1016.0 |
| 20260506144426 | 63 | 324 | 0.0 | 1.0 | 0.00 | 0.00 | 0.00 | 44 | 1015.9 |
| 20260506144329 | 63 | 324 | 0.0 | 1.0 | 0.00 | 0.00 | 0.00 | 44 | 1015.9 |
| 20260506144230 | 63 | 324 | 0.0 | 1.0 | 0.00 | 0.00 | 0.00 | 44 | 1016.0 |
| 20260506144116 | 63 | 324 | 0.0 | 0.0 | 0.00 | 0.00 | 0.00 | 44 | 1016.0 |
| 20260506144045 | 63 | 324 | 0.0 | 0.0 | 0.00 | 0.00 | 0.00 | 44 | 1016.0 |
| 20260506143926 | 63 | 324 | 0.0 | 0.0 | 0.00 | 0.00 | 0.00 | 44 | 1015.9 |
| 20260506143856 | 63 | 324 | 0.0 | 0.0 | 0.00 | 0.00 | 0.00 | 45 | 1016.0 |
| 20260506143715 | 63 | 324 | 0.0 | 0.0 | 0.00 | 0.00 | 0.00 | 45 | 1016.0 |
| 20260506143626 | 63 | 324 | 0.0 | 0.0 | 0.00 | 0.00 | 0.00 | 45 | 1016.0 |
| 20260506143528 | 62 | 324 | 0.0 | 0.0 | 0.00 | 0.00 | 0.00 | 45 | 1016.0 |
| 20260506143434 | 62 | 324 | 0.0 | 1.0 | 0.00 | 0.00 | 0.00 | 45 | 1015.9 |
| 20260506143316 | 62 | 324 | 0.0 | 1.0 | 0.00 | 0.00 | 0.00 | 46 | 1015.9 |
| 20260506143245 | 62 | 324 | 0.0 | 1.0 | 0.00 | 0.00 | 0.00 | 45 | 1015.9 |
| 20260506143126 | 62 | 324 | 0.0 | 1.0 | 0.00 | 0.00 | 0.00 | 45 | 1015.9 |
| 20260506143034 | 62 | 324 | 0.0 | 1.0 | 0.00 | 0.00 | 0.00 | 46 | 1015.9 |
| 20260506142917 | 62 | 324 | 0.0 | 1.0 | 0.00 | 0.00 | 0.00 | 46 | 1015.9 |
| 20260506142823 | 62 | 324 | 0.0 | 1.0 | 0.00 | 0.00 | 0.00 | 46 | 1015.9 |
| 20260506142724 | 62 | 324 | 0.0 | 1.0 | 0.00 | 0.00 | 0.00 | 47 | 1015.9 |
| 20260506142633 | 62 | 324 | 0.0 | 1.0 | 0.00 | 0.00 | 0.00 | 47 | 1015.8 |
| 20260506142534 | 61 | 325 | 0.0 | 1.0 | 0.00 | 0.00 | 0.00 | 46 | 1015.8 |
| 20260506142504 | 61 | 295 | 0.0 | 1.0 | 0.00 | 0.00 | 0.00 | 47 | 1015.8 |
| 20260506142344 | 61 | 295 | 0.0 | 1.0 | 0.00 | 0.00 | 0.00 | 47 | 1015.8 |
| 20260506142223 | 61 | 295 | 0.0 | 1.0 | 0.00 | 0.00 | 0.00 | 47 | 1015.6 |
| 20260506142135 | 61 | 295 | 0.0 | 1.0 | 0.00 | 0.00 | 0.00 | 47 | 1015.8 |
| 20260506142017 | 61 | 295 | 0.0 | 1.0 | 0.00 | 0.00 | 0.00 | 47 | 1015.7 |
| 20260506141918 | 61 | 295 | 0.0 | 1.0 | 0.00 | 0.00 | 0.00 | 47 | 1015.7 |
| 20260506141828 | 61 | 295 | 0.0 | 1.0 | 0.00 | 0.00 | 0.00 | 48 | 1015.8 |
| 20260506141729 | 61 | 295 | 0.0 | 0.0 | 0.00 | 0.00 | 0.00 | 48 | 1015.6 |
| 20260506141637 | 61 | 295 | 0.0 | 0.0 | 0.00 | 0.00 | 0.00 | 48 | 1015.6 |
| 20260506141522 | 60 | 295 | 0.0 | 0.0 | 0.00 | 0.00 | 0.00 | 48 | 1015.6 |
| 20260506141425 | 60 | 289 | 0.0 | 0.0 | 0.00 | 0.00 | 0.00 | 48 | 1015.6 |
| 20260506141333 | 60 | 289 | 0.0 | 0.0 | 0.00 | 0.00 | 0.00 | 48 | 1015.6 |
| 20260506141235 | 60 | 289 | 0.0 | 0.0 | 0.00 | 0.00 | 0.00 | 48 | 1015.5 |
| 20260506141117 | 60 | 289 | 0.0 | 0.0 | 0.00 | 0.00 | 0.00 | 50 | 1015.6 |
| 20260506141024 | 60 | 289 | 0.0 | 0.0 | 0.00 | 0.00 | 0.00 | 50 | 1015.7 |
| 20260506140925 | 60 | 289 | 0.0 | 0.0 | 0.00 | 0.00 | 0.00 | 49 | 1015.6 |
| 20260506140838 | 60 | 289 | 0.0 | 0.0 | 0.00 | 0.00 | 0.00 | 49 | 1015.6 |
| 20260506140739 | 60 | 289 | 0.0 | 0.0 | 0.00 | 0.00 | 0.00 | 49 | 1015.6 |
| 20260506140620 | 60 | 289 | 0.0 | 0.0 | 0.00 | 0.00 | 0.00 | 50 | 1015.6 |
| 20260506140530 | 60 | 289 | 0.0 | 0.0 | 0.00 | 0.00 | 0.00 | 50 | 1015.6 |
| 20260506140501 | 59 | 289 | 0.0 | 0.0 | 0.00 | 0.00 | 0.00 | 50 | 1015.6 |
| 20260506140339 | 59 | 289 | 0.0 | 0.0 | 0.00 | 0.00 | 0.00 | 50 | 1015.5 |
| 20260506140241 | 59 | 291 | 0.0 | 0.0 | 0.00 | 0.00 | 0.00 | 49 | 1015.5 |
| 20260506140131 | 59 | 291 | 0.0 | 1.0 | 0.00 | 0.00 | 0.00 | 50 | 1015.5 |
| 20260506140044 | 59 | 291 | 0.0 | 1.0 | 0.00 | 0.00 | 0.00 | 50 | 1015.5 |
| 20260506135934 | 59 | 291 | 0.0 | 1.0 | 0.00 | 0.00 | 0.00 | 51 | 1015.5 |
| 20260506135816 | 59 | 291 | 0.0 | 1.0 | 0.00 | 0.00 | 0.00 | 51 | 1015.4 |
| 20260506135725 | 59 | 291 | 0.0 | 1.0 | 0.00 | 0.00 | 0.00 | 51 | 1015.4 |
| 20260506135628 | 59 | 291 | 0.0 | 1.0 | 0.00 | 0.00 | 0.00 | 51 | 1015.4 |
| 20260506135519 | 59 | 291 | 0.0 | 1.0 | 0.00 | 0.00 | 0.00 | 51 | 1015.4 |
| 20260506135421 | 59 | 291 | 0.0 | 1.0 | 0.00 | 0.00 | 0.00 | 51 | 1015.3 |
| 20260506135319 | 59 | 291 | 0.0 | 1.0 | 0.00 | 0.00 | 0.00 | 51 | 1015.3 |
| 20260506135228 | 59 | 291 | 0.0 | 1.0 | 0.00 | 0.00 | 0.00 | 52 | 1015.4 |
| 20260506135129 | 59 | 291 | 0.0 | 1.0 | 0.00 | 0.00 | 0.00 | 52 | 1015.4 |
| 20260506135058 | 59 | 264 | 0.0 | 1.0 | 0.00 | 0.00 | 0.00 | 52 | 1015.4 |
| 20260506134918 | 59 | 264 | 0.0 | 1.0 | 0.00 | 0.00 | 0.00 | 53 | 1015.3 |
| 20260506134823 | 59 | 264 | 0.0 | 1.0 | 0.00 | 0.00 | 0.00 | 53 | 1015.3 |
| 20260506134730 | 59 | 264 | 0.0 | 1.0 | 0.00 | 0.00 | 0.00 | 53 | 1015.3 |
| 20260506134631 | 59 | 264 | 0.0 | 1.0 | 0.00 | 0.00 | 0.00 | 53 | 1015.3 |
| 20260506134541 | 59 | 264 | 0.0 | 1.0 | 0.00 | 0.00 | 0.00 | 53 | 1015.3 |
| 20260506134443 | 59 | 264 | 0.0 | 1.0 | 0.00 | 0.00 | 0.00 | 53 | 1015.3 |
| 20260506134324 | 59 | 264 | 0.0 | 1.0 | 0.00 | 0.00 | 0.00 | 54 | 1015.3 |
| 20260506134232 | 59 | 264 | 0.0 | 1.0 | 0.00 | 0.00 | 0.00 | 54 | 1015.2 |
| 20260506134118 | 59 | 264 | 0.0 | 1.0 | 0.00 | 0.00 | 0.00 | 54 | 1015.2 |
| 20260506134020 | 59 | 264 | 0.0 | 1.0 | 0.00 | 0.00 | 0.00 | 54 | 1015.2 |
| 20260506133929 | 59 | 264 | 0.0 | 1.0 | 0.00 | 0.00 | 0.00 | 54 | 1015.3 |
| 20260506133830 | 59 | 264 | 0.0 | 1.0 | 0.00 | 0.00 | 0.00 | 55 | 1015.2 |
| 20260506133739 | 59 | 264 | 0.0 | 0.0 | 0.00 | 0.00 | 0.00 | 55 | 1015.2 |
| 20260506133620 | 59 | 264 | 0.0 | 0.0 | 0.00 | 0.00 | 0.00 | 56 | 1015.2 |
| 20260506133525 | 59 | 264 | 0.0 | 0.0 | 0.00 | 0.00 | 0.00 | 56 | 1015.1 |
| 20260506133453 | 59 | 264 | 0.0 | 0.0 | 0.00 | 0.00 | 0.00 | 56 | 1015.2 |
| 20260506133334 | 59 | 264 | 0.0 | 0.0 | 0.00 | 0.00 | 0.00 | 56 | 1015.2 |
| 20260506133216 | 58 | 264 | 0.0 | 0.0 | 0.00 | 0.00 | 0.00 | 56 | 1015.2 |
| 20260506133118 | 58 | 264 | 0.0 | 0.0 | 0.00 | 0.00 | 0.00 | 57 | 1015.2 |
| 20260506133026 | 58 | 264 | 0.0 | 0.0 | 0.00 | 0.00 | 0.00 | 57 | 1015.2 |
| 20260506132926 | 58 | 264 | 0.0 | 0.0 | 0.00 | 0.00 | 0.00 | 58 | 1015.2 |
| 20260506132840 | 58 | 264 | 0.0 | 0.0 | 0.00 | 0.00 | 0.00 | 58 | 1015.2 |
| 20260506132721 | 58 | 264 | 0.0 | 0.0 | 0.00 | 0.00 | 0.00 | 58 | 1015.2 |
| 20260506132623 | 58 | 264 | 0.0 | 0.0 | 0.00 | 0.00 | 0.00 | 58 | 1015.2 |
| 20260506132523 | 58 | 264 | 0.0 | 0.0 | 0.00 | 0.00 | 0.00 | 58 | 1015.2 |
| 20260506132431 | 58 | 264 | 0.0 | 0.0 | 0.00 | 0.00 | 0.00 | 58 | 1015.2 |
| 20260506132334 | 58 | 264 | 0.0 | 0.0 | 0.00 | 0.00 | 0.00 | 58 | 1015.1 |
| 20260506132218 | 58 | 264 | 0.0 | 0.0 | 0.00 | 0.00 | 0.00 | 59 | 1015.1 |
| 20260506132147 | 58 | 264 | 0.0 | 0.0 | 0.00 | 0.00 | 0.00 | 59 | 1015.1 |
| 20260506132055 | 58 | 264 | 0.0 | 0.0 | 0.00 | 0.00 | 0.00 | 59 | 1015.1 |
| 20260506131955 | 58 | 264 | 0.0 | 0.0 | 0.00 | 0.00 | 0.00 | 59 | 1015.1 |
| 20260506131821 | 58 | 264 | 0.0 | 0.0 | 0.00 | 0.00 | 0.00 | 59 | 1015.1 |
| 20260506131744 | 58 | 264 | 0.0 | 0.0 | 0.00 | 0.00 | 0.00 | 59 | 1015.1 |
| 20260506131631 | 58 | 264 | 0.0 | 0.0 | 0.00 | 0.00 | 0.00 | 58 | 1015.1 |
| 20260506131533 | 58 | 264 | 0.0 | 0.0 | 0.00 | 0.00 | 0.00 | 58 | 1015.0 |
| 20260506131417 | 58 | 264 | 0.0 | 0.0 | 0.00 | 0.00 | 0.00 | 58 | 1015.0 |
| 20260506131319 | 58 | 264 | 0.0 | 0.0 | 0.00 | 0.00 | 0.00 | 58 | 1015.0 |
| 20260506131227 | 58 | 264 | 0.0 | 0.0 | 0.00 | 0.00 | 0.00 | 58 | 1015.1 |
| 20260506131129 | 58 | 264 | 0.0 | 0.0 | 0.00 | 0.00 | 0.00 | 58 | 1015.0 |
| 20260506131030 | 58 | 264 | 0.0 | 0.0 | 0.00 | 0.00 | 0.00 | 58 | 1015.0 |
| 20260506130940 | 58 | 264 | 0.0 | 0.0 | 0.00 | 0.00 | 0.00 | 57 | 1015.0 |
| 20260506130824 | 58 | 264 | 0.0 | 0.0 | 0.00 | 0.00 | 0.00 | 57 | 1015.0 |
| 20260506130753 | 58 | 264 | 0.0 | 0.0 | 0.00 | 0.00 | 0.00 | 57 | 1015.0 |
| 20260506130634 | 58 | 264 | 0.0 | 0.0 | 0.00 | 0.00 | 0.00 | 57 | 1015.0 |
| 20260506130515 | 58 | 264 | 0.0 | 0.0 | 0.00 | 0.00 | 0.00 | 56 | 1014.9 |
| 20260506130418 | 58 | 264 | 0.0 | 0.0 | 0.00 | 0.00 | 0.00 | 55 | 1014.9 |
| 20260506130326 | 58 | 264 | 0.0 | 0.0 | 0.00 | 0.00 | 0.00 | 54 | 1014.9 |
| 20260506130249 | 58 | 264 | 0.0 | 0.0 | 0.00 | 0.00 | 0.00 | 53 | 1014.9 |
| 20260506130119 | 58 | 264 | 0.0 | 0.0 | 0.00 | 0.00 | 0.00 | 53 | 1015.0 |
| 20260506130033 | 58 | 264 | 0.0 | 0.0 | 0.00 | 0.00 | 0.00 | 53 | 1014.9 |
| 20260506125929 | 58 | 264 | 0.0 | 0.0 | 0.00 | 0.00 | 0.00 | 53 | 1014.9 |
| 20260506125831 | 58 | 264 | 0.0 | 0.0 | 0.00 | 0.00 | 0.00 | 53 | 1014.9 |
| 20260506125801 | 58 | 264 | 0.0 | 0.0 | 0.00 | 0.00 | 0.00 | 53 | 1014.9 |
| 20260506125622 | 58 | 264 | 0.0 | 0.0 | 0.00 | 0.00 | 0.00 | 53 | 1014.9 |
| 20260506125529 | 58 | 264 | 0.0 | 0.0 | 0.00 | 0.00 | 0.00 | 53 | 1014.8 |
| 20260506125429 | 58 | 264 | 0.0 | 0.0 | 0.00 | 0.00 | 0.00 | 53 | 1014.8 |
| 20260506125340 | 58 | 264 | 0.0 | 0.0 | 0.00 | 0.00 | 0.00 | 52 | 1014.8 |
| 20260506125220 | 58 | 264 | 0.0 | 0.0 | 0.00 | 0.00 | 0.00 | 52 | 1014.8 |
| 20260506125122 | 58 | 264 | 0.0 | 0.0 | 0.00 | 0.00 | 0.00 | 52 | 1014.7 |
| 20260506125022 | 58 | 264 | 0.0 | 0.0 | 0.00 | 0.00 | 0.00 | 52 | 1014.7 |
| 20260506124936 | 58 | 264 | 0.0 | 0.0 | 0.00 | 0.00 | 0.00 | 52 | 1014.8 |
| 20260506124817 | 58 | 264 | 0.0 | 0.0 | 0.00 | 0.00 | 0.00 | 52 | 1014.7 |
| 20260506124719 | 58 | 264 | 0.0 | 0.0 | 0.00 | 0.00 | 0.00 | 51 | 1014.7 |
| 20260506124621 | 58 | 264 | 0.0 | 0.0 | 0.00 | 0.00 | 0.00 | 51 | 1014.7 |
| 20260506124550 | 58 | 264 | 0.0 | 0.0 | 0.00 | 0.00 | 0.00 | 51 | 1014.7 |
| 20260506124438 | 58 | 264 | 0.0 | 0.0 | 0.00 | 0.00 | 0.00 | 51 | 1014.7 |
| 20260506124338 | 58 | 264 | 0.0 | 0.0 | 0.00 | 0.00 | 0.00 | 51 | 1014.7 |
| 20260506124223 | 58 | 264 | 0.0 | 0.0 | 0.00 | 0.00 | 0.00 | 51 | 1014.7 |
| 20260506124131 | 58 | 264 | 0.0 | 0.0 | 0.00 | 0.00 | 0.00 | 51 | 1014.7 |
| 20260506124033 | 58 | 264 | 0.0 | 0.0 | 0.00 | 0.00 | 0.00 | 51 | 1014.7 |
| 20260506123936 | 58 | 264 | 0.0 | 0.0 | 0.00 | 0.00 | 0.00 | 51 | 1014.7 |
| 20260506123817 | 58 | 264 | 0.0 | 0.0 | 0.00 | 0.00 | 0.00 | 51 | 1014.7 |
| 20260506123726 | 58 | 264 | 0.0 | 0.0 | 0.00 | 0.00 | 0.00 | 50 | 1014.6 |
| 20260506123631 | 58 | 264 | 0.0 | 0.0 | 0.00 | 0.00 | 0.00 | 50 | 1014.6 |
| 20260506123533 | 58 | 264 | 0.0 | 0.0 | 0.00 | 0.00 | 0.00 | 50 | 1014.6 |
| 20260506123442 | 58 | 264 | 0.0 | 0.0 | 0.00 | 0.00 | 0.00 | 50 | 1014.5 |
| 20260506123320 | 58 | 264 | 0.0 | 0.0 | 0.00 | 0.00 | 0.00 | 50 | 1014.6 |
| 20260506123227 | 58 | 264 | 0.0 | 0.0 | 0.00 | 0.00 | 0.00 | 50 | 1014.5 |
| 20260506123127 | 58 | 264 | 0.0 | 0.0 | 0.00 | 0.00 | 0.00 | 50 | 1014.5 |
| 20260506123036 | 58 | 264 | 0.0 | 0.0 | 0.00 | 0.00 | 0.00 | 50 | 1014.5 |
| 20260506122921 | 58 | 264 | 0.0 | 0.0 | 0.00 | 0.00 | 0.00 | 49 | 1014.5 |
| 20260506122831 | 58 | 264 | 0.0 | 0.0 | 0.00 | 0.00 | 0.00 | 49 | 1014.4 |
| 20260506122753 | 58 | 264 | 0.0 | 0.0 | 0.00 | 0.00 | 0.00 | 49 | 1014.5 |
| 20260506122642 | 58 | 258 | 0.0 | 0.0 | 0.00 | 0.00 | 0.00 | 49 | 1014.5 |
| 20260506122523 | 58 | 250 | 0.0 | 0.0 | 0.00 | 0.00 | 0.00 | 49 | 1014.4 |
| 20260506122426 | 58 | 250 | 0.0 | 0.0 | 0.00 | 0.00 | 0.00 | 49 | 1014.4 |
| 20260506122329 | 58 | 250 | 0.0 | 0.0 | 0.00 | 0.00 | 0.00 | 49 | 1014.4 |
| 20260506122241 | 58 | 250 | 0.0 | 0.0 | 0.00 | 0.00 | 0.00 | 49 | 1014.3 |
| 20260506122121 | 58 | 250 | 0.0 | 0.0 | 0.00 | 0.00 | 0.00 | 49 | 1014.2 |
| 20260506122023 | 58 | 250 | 0.0 | 0.0 | 0.00 | 0.00 | 0.00 | 49 | 1014.2 |
| 20260506121933 | 58 | 250 | 0.0 | 0.0 | 0.00 | 0.00 | 0.00 | 49 | 1014.2 |
| 20260506121834 | 59 | 250 | 0.0 | 0.0 | 0.00 | 0.00 | 0.00 | 49 | 1014.2 |
| 20260506121716 | 59 | 250 | 0.0 | 0.0 | 0.00 | 0.00 | 0.00 | 49 | 1014.3 |
| 20260506121630 | 58 | 250 | 0.0 | 0.0 | 0.00 | 0.00 | 0.00 | 49 | 1014.3 |
| 20260506121600 | 59 | 250 | 0.0 | 0.0 | 0.00 | 0.00 | 0.00 | 49 | 1014.3 |
| 20260506121419 | 59 | 250 | 0.0 | 0.0 | 0.00 | 0.00 | 0.00 | 48 | 1014.2 |
| 20260506121320 | 59 | 250 | 0.0 | 0.0 | 0.00 | 0.00 | 0.00 | 48 | 1014.2 |
| 20260506121227 | 59 | 250 | 0.0 | 0.0 | 0.00 | 0.00 | 0.00 | 49 | 1014.2 |
| 20260506121156 | 59 | 250 | 0.0 | 0.0 | 0.00 | 0.00 | 0.00 | 48 | 1014.3 |
| 20260506121017 | 59 | 250 | 0.0 | 0.0 | 0.00 | 0.00 | 0.00 | 48 | 1014.2 |
| 20260506120919 | 59 | 250 | 0.0 | 0.0 | 0.00 | 0.00 | 0.00 | 48 | 1014.2 |
| 20260506120826 | 59 | 250 | 0.0 | 0.0 | 0.00 | 0.00 | 0.00 | 48 | 1014.2 |
| 20260506120734 | 59 | 250 | 0.0 | 0.0 | 0.00 | 0.00 | 0.00 | 48 | 1014.2 |
| 20260506120655 | 59 | 250 | 0.0 | 0.0 | 0.00 | 0.00 | 0.00 | 49 | 1014.3 |
| 20260506120543 | 59 | 250 | 0.0 | 0.0 | 0.00 | 0.00 | 0.00 | 49 | 1014.3 |
| 20260506120444 | 59 | 250 | 0.0 | 0.0 | 0.00 | 0.00 | 0.00 | 48 | 1014.2 |
| 20260506120332 | 59 | 250 | 0.0 | 0.0 | 0.00 | 0.00 | 0.00 | 49 | 1014.2 |
| 20260506120216 | 59 | 250 | 0.0 | 0.0 | 0.00 | 0.00 | 0.00 | 48 | 1014.2 |
| 20260506120118 | 59 | 250 | 0.0 | 0.0 | 0.00 | 0.00 | 0.00 | 49 | 1014.1 |
| 20260506120031 | 59 | 250 | 0.0 | 0.0 | 0.00 | 0.00 | 0.00 | 49 | 1014.1 |
| 20260506115949 | 59 | 250 | 0.0 | 0.0 | 0.00 | 0.00 | 0.00 | 49 | 1014.2 |
| 20260506115827 | 59 | 250 | 0.0 | 0.0 | 0.00 | 0.00 | 0.00 | 48 | 1014.2 |
| 20260506115718 | 59 | 250 | 0.0 | 0.0 | 0.00 | 0.00 | 0.00 | 48 | 1014.1 |
| 20260506115618 | 60 | 250 | 0.0 | 0.0 | 0.00 | 0.00 | 0.00 | 47 | 1014.1 |
| 20260506115523 | 60 | 250 | 0.0 | 0.0 | 0.00 | 0.00 | 0.00 | 47 | 1014.2 |
| 20260506115433 | 60 | 250 | 0.0 | 0.0 | 0.00 | 0.00 | 0.00 | 47 | 1014.2 |
| 20260506115335 | 60 | 250 | 0.0 | 0.0 | 0.00 | 0.00 | 0.00 | 47 | 1014.1 |
| 20260506115236 | 60 | 250 | 0.0 | 0.0 | 0.00 | 0.00 | 0.00 | 47 | 1014.1 |
| 20260506115126 | 60 | 250 | 0.0 | 0.0 | 0.00 | 0.00 | 0.00 | 47 | 1014.2 |
| 20260506115027 | 60 | 250 | 0.0 | 0.0 | 0.00 | 0.00 | 0.00 | 47 | 1014.1 |
| 20260506114936 | 60 | 250 | 0.0 | 0.0 | 0.00 | 0.00 | 0.00 | 48 | 1014.1 |
| 20260506114822 | 60 | 250 | 0.0 | 0.0 | 0.00 | 0.00 | 0.00 | 47 | 1014.1 |
| 20260506114724 | 60 | 250 | 0.0 | 0.0 | 0.00 | 0.00 | 0.00 | 47 | 1014.1 |
| 20260506114625 | 60 | 250 | 0.0 | 0.0 | 0.00 | 0.00 | 0.00 | 47 | 1014.1 |
| 20260506114536 | 60 | 250 | 0.0 | 0.0 | 0.00 | 0.00 | 0.00 | 47 | 1014.1 |
| 20260506114418 | 60 | 250 | 0.0 | 0.0 | 0.00 | 0.00 | 0.00 | 47 | 1014.1 |
| 20260506114324 | 60 | 250 | 0.0 | 0.0 | 0.00 | 0.00 | 0.00 | 47 | 1014.1 |
| 20260506114234 | 60 | 250 | 0.0 | 0.0 | 0.00 | 0.00 | 0.00 | 47 | 1014.1 |
| 20260506114116 | 60 | 250 | 0.0 | 0.0 | 0.00 | 0.00 | 0.00 | 47 | 1014.1 |
| 20260506114015 | 60 | 250 | 0.0 | 0.0 | 0.00 | 0.00 | 0.00 | 47 | 1014.1 |
| 20260506113925 | 60 | 250 | 0.0 | 0.0 | 0.00 | 0.00 | 0.00 | 47 | 1014.1 |
| 20260506113847 | 60 | 250 | 0.0 | 0.0 | 0.00 | 0.00 | 0.00 | 47 | 1014.1 |
| 20260506113734 | 60 | 250 | 0.0 | 0.0 | 0.00 | 0.00 | 0.00 | 47 | 1014.2 |
| 20260506113620 | 60 | 250 | 0.0 | 0.0 | 0.00 | 0.00 | 0.00 | 47 | 1014.2 |
| 20260506113542 | 60 | 250 | 0.0 | 0.0 | 0.00 | 0.00 | 0.00 | 47 | 1014.2 |
| 20260506113430 | 60 | 250 | 0.0 | 0.0 | 0.00 | 0.00 | 0.00 | 47 | 1014.2 |
| 20260506113331 | 60 | 250 | 0.0 | 0.0 | 0.00 | 0.00 | 0.00 | 47 | 1014.1 |
| 20260506113301 | 60 | 250 | 0.0 | 0.0 | 0.00 | 0.00 | 0.00 | 47 | 1014.1 |
| 20260506113122 | 60 | 250 | 0.0 | 0.0 | 0.00 | 0.00 | 0.00 | 47 | 1014.2 |
| 20260506113023 | 60 | 250 | 0.0 | 0.0 | 0.00 | 0.00 | 0.00 | 47 | 1014.2 |
| 20260506112956 | 60 | 250 | 0.0 | 0.0 | 0.00 | 0.00 | 0.00 | 48 | 1014.2 |
| 20260506112817 | 60 | 250 | 0.0 | 0.0 | 0.00 | 0.00 | 0.00 | 47 | 1014.2 |
| 20260506112718 | 60 | 250 | 0.0 | 0.0 | 0.00 | 0.00 | 0.00 | 48 | 1014.2 |
| 20260506112647 | 60 | 250 | 0.0 | 0.0 | 0.00 | 0.00 | 0.00 | 47 | 1014.2 |
| 20260506112529 | 60 | 250 | 0.0 | 0.0 | 0.00 | 0.00 | 0.00 | 48 | 1014.2 |
| 20260506112438 | 60 | 250 | 0.0 | 0.0 | 0.00 | 0.00 | 0.00 | 48 | 1014.2 |
| 20260506112323 | 60 | 250 | 0.0 | 0.0 | 0.00 | 0.00 | 0.00 | 47 | 1014.2 |
| 20260506112225 | 60 | 250 | 0.0 | 0.0 | 0.00 | 0.00 | 0.00 | 47 | 1014.1 |
| 20260506112127 | 60 | 250 | 0.0 | 0.0 | 0.00 | 0.00 | 0.00 | 47 | 1014.1 |
| 20260506112036 | 60 | 250 | 0.0 | 0.0 | 0.00 | 0.00 | 0.00 | 47 | 1014.1 |
| 20260506111918 | 60 | 250 | 0.0 | 0.0 | 0.00 | 0.00 | 0.00 | 46 | 1014.1 |
| 20260506111819 | 60 | 250 | 0.0 | 0.0 | 0.00 | 0.00 | 0.00 | 47 | 1014.1 |
| 20260506111725 | 60 | 250 | 0.0 | 0.0 | 0.00 | 0.00 | 0.00 | 46 | 1014.1 |
| 20260506111635 | 60 | 250 | 0.0 | 0.0 | 0.00 | 0.00 | 0.00 | 47 | 1014.0 |
| 20260506111536 | 60 | 250 | 0.0 | 0.0 | 0.00 | 0.00 | 0.00 | 47 | 1014.0 |
| 20260506111417 | 60 | 250 | 0.0 | 0.0 | 0.00 | 0.00 | 0.00 | 47 | 1014.0 |
| 20260506111326 | 60 | 250 | 0.0 | 0.0 | 0.00 | 0.00 | 0.00 | 47 | 1013.9 |
| 20260506111229 | 60 | 250 | 0.0 | 0.0 | 0.00 | 0.00 | 0.00 | 47 | 1013.9 |
| 20260506111130 | 60 | 250 | 0.0 | 0.0 | 0.00 | 0.00 | 0.00 | 47 | 1014.0 |
| 20260506111016 | 60 | 250 | 0.0 | 0.0 | 0.00 | 0.00 | 0.00 | 46 | 1014.0 |
| 20260506110925 | 60 | 250 | 0.0 | 0.0 | 0.00 | 0.00 | 0.00 | 47 | 1013.9 |
| 20260506110828 | 60 | 250 | 0.0 | 0.0 | 0.00 | 0.00 | 0.00 | 47 | 1013.9 |
| 20260506110729 | 60 | 250 | 0.0 | 0.0 | 0.00 | 0.00 | 0.00 | 46 | 1013.9 |
| 20260506110640 | 60 | 250 | 0.0 | 0.0 | 0.00 | 0.00 | 0.00 | 46 | 1013.9 |
| 20260506110542 | 60 | 250 | 0.0 | 0.0 | 0.00 | 0.00 | 0.00 | 46 | 1014.0 |
| 20260506110454 | 60 | 250 | 0.0 | 0.0 | 0.00 | 0.00 | 0.00 | 46 | 1013.9 |
| 20260506110402 | 61 | 250 | 0.0 | 0.0 | 0.00 | 0.00 | 0.00 | 47 | 1013.9 |
| 20260506110223 | 61 | 250 | 0.0 | 0.0 | 0.00 | 0.00 | 0.00 | 46 | 1013.9 |
| 20260506110125 | 61 | 250 | 0.0 | 0.0 | 0.00 | 0.00 | 0.00 | 46 | 1014.0 |
| 20260506110047 | 61 | 250 | 0.0 | 0.0 | 0.00 | 0.00 | 0.00 | 46 | 1014.0 |
| 20260506105918 | 61 | 250 | 0.0 | 0.0 | 0.00 | 0.00 | 0.00 | 45 | 1014.0 |
| 20260506105823 | 61 | 250 | 0.0 | 0.0 | 0.00 | 0.00 | 0.00 | 45 | 1014.0 |
| 20260506105725 | 61 | 250 | 0.0 | 0.0 | 0.00 | 0.00 | 0.00 | 45 | 1013.9 |
| 20260506105635 | 62 | 250 | 0.0 | 0.0 | 0.00 | 0.00 | 0.00 | 45 | 1014.0 |
| 20260506105517 | 62 | 250 | 0.0 | 0.0 | 0.00 | 0.00 | 0.00 | 45 | 1014.0 |
| 20260506105419 | 62 | 250 | 0.0 | 0.0 | 0.00 | 0.00 | 0.00 | 45 | 1013.9 |
| 20260506105347 | 62 | 250 | 0.0 | 0.0 | 0.00 | 0.00 | 0.00 | 45 | 1014.0 |
| 20260506105229 | 62 | 250 | 0.0 | 0.0 | 0.00 | 0.00 | 0.00 | 45 | 1014.0 |
| 20260506105136 | 62 | 250 | 0.0 | 0.0 | 0.00 | 0.00 | 0.00 | 45 | 1014.0 |
| 20260506105018 | 62 | 250 | 0.0 | 0.0 | 0.00 | 0.00 | 0.00 | 45 | 1014.0 |
| 20260506104927 | 62 | 250 | 0.0 | 0.0 | 0.00 | 0.00 | 0.00 | 45 | 1014.0 |
| 20260506104849 | 62 | 250 | 0.0 | 0.0 | 0.00 | 0.00 | 0.00 | 45 | 1014.0 |
| 20260506104736 | 62 | 250 | 0.0 | 0.0 | 0.00 | 0.00 | 0.00 | 45 | 1013.9 |
| 20260506104637 | 62 | 250 | 0.0 | 0.0 | 0.00 | 0.00 | 0.00 | 45 | 1014.0 |
| 20260506104528 | 62 | 250 | 0.0 | 0.0 | 0.00 | 0.00 | 0.00 | 45 | 1014.0 |
| 20260506104430 | 62 | 250 | 0.0 | 0.0 | 0.00 | 0.00 | 0.00 | 45 | 1014.0 |
| 20260506104332 | 62 | 250 | 0.0 | 0.0 | 0.00 | 0.00 | 0.00 | 45 | 1014.0 |
| 20260506104242 | 62 | 250 | 0.0 | 0.0 | 0.00 | 0.00 | 0.00 | 45 | 1014.0 |
| 20260506104124 | 62 | 250 | 0.0 | 0.0 | 0.00 | 0.00 | 0.00 | 45 | 1014.0 |
| 20260506104045 | 62 | 250 | 0.0 | 0.0 | 0.00 | 0.00 | 0.00 | 45 | 1014.0 |
| 20260506103953 | 62 | 250 | 0.0 | 0.0 | 0.00 | 0.00 | 0.00 | 45 | 1014.0 |
| 20260506103818 | 62 | 250 | 0.0 | 0.0 | 0.00 | 0.00 | 0.00 | 45 | 1014.0 |
| 20260506103747 | 62 | 250 | 0.0 | 0.0 | 0.00 | 0.00 | 0.00 | 45 | 1013.9 |
| 20260506103628 | 62 | 250 | 0.0 | 0.0 | 0.00 | 0.00 | 0.00 | 45 | 1013.9 |
| 20260506103530 | 62 | 250 | 0.0 | 0.0 | 0.00 | 0.00 | 0.00 | 45 | 1013.9 |
| 20260506103439 | 62 | 250 | 0.0 | 0.0 | 0.00 | 0.00 | 0.00 | 45 | 1013.9 |
| 20260506103320 | 62 | 250 | 0.0 | 0.0 | 0.00 | 0.00 | 0.00 | 45 | 1014.0 |
| 20260506103221 | 62 | 250 | 0.0 | 0.0 | 0.00 | 0.00 | 0.00 | 45 | 1013.9 |
| 20260506103135 | 62 | 250 | 0.0 | 0.0 | 0.00 | 0.00 | 0.00 | 45 | 1013.9 |
| 20260506103018 | 62 | 250 | 0.0 | 0.0 | 0.00 | 0.00 | 0.00 | 45 | 1013.8 |
| 20260506102919 | 62 | 250 | 0.0 | 0.0 | 0.00 | 0.00 | 0.00 | 45 | 1013.8 |
| 20260506102849 | 62 | 250 | 0.0 | 0.0 | 0.00 | 0.00 | 0.00 | 45 | 1013.9 |
| 20260506102730 | 62 | 250 | 0.0 | 0.0 | 0.00 | 0.00 | 0.00 | 44 | 1013.9 |
| 20260506102640 | 62 | 250 | 0.0 | 0.0 | 0.00 | 0.00 | 0.00 | 44 | 1013.9 |
| 20260506102545 | 62 | 250 | 0.0 | 0.0 | 0.00 | 0.00 | 0.00 | 44 | 1013.9 |
| 20260506102425 | 62 | 250 | 0.0 | 0.0 | 0.00 | 0.00 | 0.00 | 44 | 1013.9 |
| 20260506102355 | 62 | 250 | 0.0 | 0.0 | 0.00 | 0.00 | 0.00 | 44 | 1013.9 |
| 20260506102216 | 62 | 250 | 0.0 | 0.0 | 0.00 | 0.00 | 0.00 | 45 | 1013.8 |
| 20260506102118 | 62 | 250 | 0.0 | 0.0 | 0.00 | 0.00 | 0.00 | 45 | 1013.8 |
| 20260506102028 | 62 | 250 | 0.0 | 0.0 | 0.00 | 0.00 | 0.00 | 45 | 1013.8 |
| 20260506101930 | 62 | 250 | 0.0 | 0.0 | 0.00 | 0.00 | 0.00 | 45 | 1013.8 |
| 20260506101815 | 62 | 250 | 0.0 | 0.0 | 0.00 | 0.00 | 0.00 | 45 | 1013.8 |
| 20260506101717 | 61 | 250 | 0.0 | 0.0 | 0.00 | 0.00 | 0.00 | 45 | 1013.8 |
| 20260506101625 | 61 | 250 | 0.0 | 0.0 | 0.00 | 0.00 | 0.00 | 46 | 1013.8 |
| 20260506101527 | 61 | 250 | 0.0 | 0.0 | 0.00 | 0.00 | 0.00 | 46 | 1013.7 |
| 20260506101436 | 61 | 250 | 0.0 | 0.0 | 0.00 | 0.00 | 0.00 | 46 | 1013.8 |
| 20260506101317 | 61 | 250 | 0.0 | 0.0 | 0.00 | 0.00 | 0.00 | 47 | 1013.7 |
| 20260506101223 | 61 | 250 | 0.0 | 1.0 | 0.00 | 0.00 | 0.00 | 47 | 1013.7 |
| 20260506101124 | 61 | 250 | 0.0 | 1.0 | 0.00 | 0.00 | 0.00 | 47 | 1013.8 |
| 20260506101033 | 61 | 250 | 0.0 | 1.0 | 0.00 | 0.00 | 0.00 | 47 | 1013.7 |
| 20260506100935 | 61 | 250 | 0.0 | 1.0 | 0.00 | 0.00 | 0.00 | 47 | 1013.7 |
| 20260506100815 | 61 | 250 | 0.0 | 1.0 | 0.00 | 0.00 | 0.00 | 47 | 1013.6 |
| 20260506100726 | 61 | 250 | 0.0 | 1.0 | 0.00 | 0.00 | 0.00 | 47 | 1013.7 |
| 20260506100649 | 61 | 250 | 0.0 | 1.0 | 0.00 | 0.00 | 0.00 | 47 | 1013.7 |
| 20260506100538 | 61 | 250 | 0.0 | 1.0 | 0.00 | 0.00 | 0.00 | 47 | 1013.7 |
| 20260506100420 | 61 | 250 | 0.0 | 1.0 | 0.00 | 0.00 | 0.00 | 47 | 1013.6 |
| 20260506100322 | 61 | 250 | 0.0 | 1.0 | 0.00 | 0.00 | 0.00 | 47 | 1013.6 |
| 20260506100223 | 61 | 250 | 0.0 | 1.0 | 0.00 | 0.00 | 0.00 | 46 | 1013.6 |
| 20260506100131 | 61 | 250 | 0.0 | 1.0 | 0.00 | 0.00 | 0.00 | 46 | 1013.6 |
| 20260506100028 | 62 | 250 | 0.0 | 0.0 | 0.00 | 0.00 | 0.00 | 46 | 1013.5 |
| 20260506095924 | 62 | 250 | 0.0 | 0.0 | 0.00 | 0.00 | 0.00 | 45 | 1013.5 |
| 20260506095845 | 62 | 250 | 0.0 | 0.0 | 0.00 | 0.00 | 0.00 | 45 | 1013.4 |
| 20260506095732 | 62 | 250 | 0.0 | 0.0 | 0.00 | 0.00 | 0.00 | 45 | 1013.5 |
| 20260506095634 | 62 | 250 | 0.0 | 0.0 | 0.00 | 0.00 | 0.00 | 45 | 1013.6 |
| 20260506095543 | 62 | 250 | 0.0 | 0.0 | 0.00 | 0.00 | 0.00 | 45 | 1013.6 |
| 20260506095425 | 62 | 250 | 0.0 | 0.0 | 0.00 | 0.00 | 0.00 | 45 | 1013.5 |
| 20260506095330 | 62 | 250 | 0.0 | 0.0 | 0.00 | 0.00 | 0.00 | 45 | 1013.5 |
| 20260506095301 | 62 | 250 | 0.0 | 0.0 | 0.00 | 0.00 | 0.00 | 45 | 1013.5 |
| 20260506095121 | 62 | 250 | 0.0 | 0.0 | 0.00 | 0.00 | 0.00 | 45 | 1013.4 |
| 20260506095023 | 62 | 250 | 0.0 | 0.0 | 0.00 | 0.00 | 0.00 | 45 | 1013.3 |
| 20260506094952 | 62 | 250 | 0.0 | 0.0 | 0.00 | 0.00 | 0.00 | 45 | 1013.4 |
| 20260506094833 | 62 | 250 | 0.0 | 0.0 | 0.00 | 0.00 | 0.00 | 45 | 1013.4 |
| 20260506094734 | 62 | 250 | 0.0 | 0.0 | 0.00 | 0.00 | 0.00 | 45 | 1013.5 |
| 20260506094627 | 62 | 250 | 0.0 | 0.0 | 0.00 | 0.00 | 0.00 | 45 | 1013.5 |
| 20260506094529 | 62 | 250 | 0.0 | 0.0 | 0.00 | 0.00 | 0.00 | 45 | 1013.4 |
| 20260506094431 | 62 | 250 | 0.0 | 0.0 | 0.00 | 0.00 | 0.00 | 45 | 1013.3 |
| 20260506094319 | 62 | 250 | 0.0 | 0.0 | 0.00 | 0.00 | 0.00 | 45 | 1013.4 |
| 20260506094221 | 62 | 250 | 0.0 | 0.0 | 0.00 | 0.00 | 0.00 | 45 | 1013.2 |
| 20260506094149 | 62 | 250 | 0.0 | 0.0 | 0.00 | 0.00 | 0.00 | 45 | 1013.3 |
| 20260506094031 | 62 | 250 | 0.0 | 0.0 | 0.00 | 0.00 | 0.00 | 45 | 1013.3 |
| 20260506093916 | 62 | 250 | 0.0 | 0.0 | 0.00 | 0.00 | 0.00 | 45 | 1013.2 |
| 20260506093819 | 62 | 250 | 0.0 | 0.0 | 0.00 | 0.00 | 0.00 | 44 | 1013.2 |
| 20260506093727 | 63 | 250 | 0.0 | 0.0 | 0.00 | 0.00 | 0.00 | 44 | 1013.3 |
| 20260506093649 | 63 | 250 | 0.0 | 0.0 | 0.00 | 0.00 | 0.00 | 44 | 1013.2 |
| 20260506093515 | 63 | 250 | 0.0 | 0.0 | 0.00 | 0.00 | 0.00 | 44 | 1013.2 |
| 20260506093417 | 63 | 250 | 0.0 | 0.0 | 0.00 | 0.00 | 0.00 | 44 | 1013.2 |
| 20260506093330 | 63 | 250 | 0.0 | 0.0 | 0.00 | 0.00 | 0.00 | 44 | 1013.2 |
| 20260506093232 | 63 | 250 | 0.0 | 0.0 | 0.00 | 0.00 | 0.00 | 44 | 1013.3 |
| 20260506093141 | 63 | 250 | 0.0 | 0.0 | 0.00 | 0.00 | 0.00 | 44 | 1013.3 |
| 20260506093042 | 63 | 250 | 0.0 | 0.0 | 0.00 | 0.00 | 0.00 | 44 | 1013.2 |
| 20260506092921 | 63 | 250 | 0.0 | 0.0 | 0.00 | 0.00 | 0.00 | 44 | 1013.2 |
| 20260506092831 | 63 | 250 | 0.0 | 0.0 | 0.00 | 0.00 | 0.00 | 44 | 1013.3 |
| 20260506092733 | 63 | 250 | 0.0 | 0.0 | 0.00 | 0.00 | 0.00 | 44 | 1013.2 |
| 20260506092619 | 63 | 250 | 0.0 | 0.0 | 0.00 | 0.00 | 0.00 | 44 | 1013.3 |
| 20260506092521 | 63 | 250 | 0.0 | 0.0 | 0.00 | 0.00 | 0.00 | 44 | 1013.3 |
| 20260506092431 | 63 | 250 | 0.0 | 0.0 | 0.00 | 0.00 | 0.00 | 44 | 1013.3 |
| 20260506092333 | 63 | 250 | 0.0 | 1.0 | 0.00 | 0.00 | 0.00 | 44 | 1013.3 |
| 20260506092236 | 63 | 250 | 0.0 | 1.0 | 0.00 | 0.00 | 0.00 | 44 | 1013.3 |
| 20260506092123 | 63 | 250 | 0.0 | 1.0 | 0.00 | 0.00 | 0.00 | 43 | 1013.2 |
| 20260506092028 | 63 | 250 | 0.0 | 1.0 | 0.00 | 0.00 | 0.00 | 43 | 1013.4 |
| 20260506091930 | 63 | 250 | 0.0 | 1.0 | 0.00 | 0.00 | 0.00 | 43 | 1013.2 |
| 20260506091840 | 64 | 250 | 0.0 | 1.0 | 0.00 | 0.00 | 0.00 | 43 | 1013.2 |
| 20260506091722 | 64 | 250 | 0.0 | 1.0 | 0.00 | 0.00 | 0.00 | 43 | 1013.2 |
| 20260506091625 | 64 | 250 | 0.0 | 1.0 | 0.00 | 0.00 | 0.00 | 43 | 1013.2 |
| 20260506091525 | 64 | 250 | 0.0 | 1.0 | 0.00 | 0.00 | 0.00 | 43 | 1013.2 |
| 20260506091439 | 63 | 250 | 0.0 | 1.0 | 0.00 | 0.00 | 0.00 | 43 | 1013.2 |
| 20260506091322 | 64 | 250 | 0.0 | 0.0 | 0.00 | 0.00 | 0.00 | 43 | 1013.2 |
| 20260506091224 | 63 | 250 | 0.0 | 0.0 | 0.00 | 0.00 | 0.00 | 43 | 1013.1 |
| 20260506091133 | 63 | 250 | 0.0 | 0.0 | 0.00 | 0.00 | 0.00 | 43 | 1013.2 |
| 20260506091056 | 64 | 250 | 0.0 | 0.0 | 0.00 | 0.00 | 0.00 | 43 | 1013.1 |
| 20260506090943 | 63 | 250 | 0.0 | 0.0 | 0.00 | 0.00 | 0.00 | 43 | 1013.2 |
| 20260506090824 | 64 | 250 | 0.0 | 1.0 | 0.00 | 0.00 | 0.00 | 43 | 1013.2 |
| 20260506090729 | 63 | 250 | 0.0 | 1.0 | 0.00 | 0.00 | 0.00 | 43 | 1013.2 |
| 20260506090639 | 64 | 250 | 0.0 | 1.0 | 0.00 | 0.00 | 0.00 | 43 | 1013.2 |
| 20260506090540 | 63 | 250 | 0.0 | 1.0 | 0.00 | 0.00 | 0.00 | 43 | 1013.2 |
| 20260506090421 | 63 | 250 | 0.0 | 1.0 | 0.00 | 0.00 | 0.00 | 43 | 1013.1 |
| 20260506090350 | 64 | 250 | 0.0 | 1.0 | 0.00 | 0.00 | 0.00 | 43 | 1013.1 |
| 20260506090231 | 63 | 250 | 0.0 | 1.0 | 0.00 | 0.00 | 0.00 | 43 | 1013.1 |
| 20260506090140 | 63 | 250 | 0.0 | 1.0 | 0.00 | 0.00 | 0.00 | 43 | 1013.1 |
| 20260506090036 | 64 | 250 | 0.0 | 1.0 | 0.00 | 0.00 | 0.00 | 43 | 1013.1 |
| 20260506085932 | 63 | 250 | 0.0 | 1.0 | 0.00 | 0.00 | 0.00 | 43 | 1013.1 |
| 20260506085815 | 64 | 250 | 0.0 | 1.0 | 0.00 | 0.00 | 0.00 | 43 | 1013.2 |
| 20260506085717 | 64 | 250 | 0.0 | 1.0 | 0.00 | 0.00 | 0.00 | 43 | 1013.0 |
| 20260506085619 | 64 | 250 | 0.0 | 1.0 | 0.00 | 0.00 | 0.00 | 43 | 1013.1 |
| 20260506085527 | 64 | 250 | 0.0 | 1.0 | 0.00 | 0.00 | 0.00 | 43 | 1013.1 |
| 20260506085432 | 64 | 250 | 0.0 | 1.0 | 0.00 | 0.00 | 0.00 | 43 | 1013.1 |
| 20260506085319 | 64 | 250 | 0.0 | 1.0 | 0.00 | 0.00 | 0.00 | 43 | 1013.0 |
| 20260506085220 | 64 | 250 | 0.0 | 1.0 | 0.00 | 0.00 | 0.00 | 43 | 1013.1 |
| 20260506085129 | 64 | 250 | 0.0 | 1.0 | 0.00 | 0.00 | 0.00 | 43 | 1013.1 |
| 20260506085051 | 64 | 250 | 0.0 | 1.0 | 0.00 | 0.00 | 0.00 | 43 | 1013.0 |
| 20260506084938 | 64 | 250 | 0.0 | 1.0 | 0.00 | 0.00 | 0.00 | 43 | 1013.0 |
| 20260506084820 | 64 | 250 | 0.0 | 1.0 | 0.00 | 0.00 | 0.00 | 43 | 1013.0 |
| 20260506084725 | 64 | 250 | 0.0 | 1.0 | 0.00 | 0.00 | 0.00 | 43 | 1013.1 |
| 20260506084628 | 64 | 250 | 0.0 | 1.0 | 0.00 | 0.00 | 0.00 | 43 | 1013.1 |
| 20260506084516 | 64 | 250 | 0.0 | 1.0 | 0.00 | 0.00 | 0.00 | 42 | 1013.0 |
| 20260506084417 | 64 | 250 | 0.0 | 1.0 | 0.00 | 0.00 | 0.00 | 42 | 1013.1 |
| 20260506084319 | 64 | 250 | 0.0 | 1.0 | 0.00 | 0.00 | 0.00 | 42 | 1013.0 |
| 20260506084248 | 64 | 250 | 0.0 | 1.0 | 0.00 | 0.00 | 0.00 | 42 | 1013.2 |
| 20260506084127 | 64 | 250 | 0.0 | 1.0 | 0.00 | 0.00 | 0.00 | 42 | 1013.0 |
| 20260506084040 | 64 | 250 | 0.0 | 1.0 | 0.00 | 0.00 | 0.00 | 42 | 1013.0 |
| 20260506083920 | 64 | 250 | 0.0 | 1.0 | 0.00 | 0.00 | 0.00 | 42 | 1013.0 |
| 20260506083822 | 64 | 250 | 0.0 | 1.0 | 0.00 | 0.00 | 0.00 | 42 | 1013.1 |
| 20260506083724 | 64 | 250 | 0.0 | 1.0 | 0.00 | 0.00 | 0.00 | 42 | 1013.0 |
| 20260506083633 | 64 | 250 | 0.0 | 1.0 | 0.00 | 0.00 | 0.00 | 42 | 1013.1 |
| 20260506083520 | 64 | 250 | 0.0 | 1.0 | 0.00 | 0.00 | 0.00 | 42 | 1013.0 |
| 20260506083422 | 64 | 250 | 0.0 | 1.0 | 0.00 | 0.00 | 0.00 | 42 | 1013.0 |
| 20260506083331 | 64 | 250 | 0.0 | 1.0 | 0.00 | 0.00 | 0.00 | 42 | 1013.0 |
| 20260506083232 | 64 | 250 | 0.0 | 1.0 | 0.00 | 0.00 | 0.00 | 42 | 1013.0 |
| 20260506083201 | 64 | 250 | 0.0 | 1.0 | 0.00 | 0.00 | 0.00 | 42 | 1013.0 |
| 20260506083041 | 64 | 250 | 0.0 | 1.0 | 0.00 | 0.00 | 0.00 | 42 | 1013.1 |
| 20260506082922 | 64 | 250 | 0.0 | 1.0 | 0.00 | 0.00 | 0.00 | 42 | 1013.0 |
| 20260506082830 | 65 | 250 | 0.0 | 1.0 | 0.00 | 0.00 | 0.00 | 42 | 1013.0 |
| 20260506082716 | 65 | 250 | 0.0 | 3.0 | 0.00 | 0.00 | 0.00 | 42 | 1013.0 |
| 20260506082645 | 65 | 250 | 0.0 | 3.0 | 0.00 | 0.00 | 0.00 | 42 | 1013.0 |
| 20260506082546 | 65 | 250 | 0.0 | 3.0 | 0.00 | 0.00 | 0.00 | 42 | 1012.9 |
| 20260506082434 | 65 | 250 | 0.0 | 3.0 | 0.00 | 0.00 | 0.00 | 42 | 1013.0 |
| 20260506082316 | 65 | 250 | 0.0 | 3.0 | 0.00 | 0.00 | 0.00 | 42 | 1013.0 |
| 20260506082218 | 65 | 250 | 0.0 | 3.0 | 0.00 | 0.00 | 0.00 | 42 | 1013.0 |
| 20260506082131 | 65 | 250 | 0.0 | 3.0 | 0.00 | 0.00 | 0.00 | 42 | 1013.0 |
| 20260506082033 | 65 | 250 | 0.0 | 3.0 | 0.00 | 0.00 | 0.00 | 42 | 1013.0 |
| 20260506081934 | 65 | 250 | 1.0 | 3.0 | 0.00 | 0.00 | 0.00 | 42 | 1013.0 |
| 20260506081842 | 65 | 250 | 1.0 | 3.0 | 0.00 | 0.00 | 0.00 | 42 | 1013.1 |
| 20260506081722 | 65 | 250 | 1.0 | 3.0 | 0.00 | 0.00 | 0.00 | 42 | 1013.0 |
| 20260506081631 | 65 | 249 | 0.0 | 3.0 | 0.00 | 0.00 | 0.00 | 42 | 1013.1 |
| 20260506081532 | 65 | 249 | 0.0 | 4.0 | 0.00 | 0.00 | 0.00 | 41 | 1013.0 |
| 20260506081418 | 65 | 249 | 0.0 | 4.0 | 0.00 | 0.00 | 0.00 | 41 | 1013.1 |
| 20260506081320 | 65 | 249 | 0.0 | 4.0 | 0.00 | 0.00 | 0.00 | 41 | 1013.0 |
| 20260506081229 | 65 | 249 | 0.0 | 4.0 | 0.00 | 0.00 | 0.00 | 41 | 1013.0 |
| 20260506081151 | 65 | 249 | 0.0 | 4.0 | 0.00 | 0.00 | 0.00 | 41 | 1013.1 |
| 20260506081038 | 65 | 249 | 0.0 | 4.0 | 0.00 | 0.00 | 0.00 | 41 | 1013.0 |
| 20260506080918 | 65 | 249 | 1.0 | 5.0 | 0.00 | 0.00 | 0.00 | 41 | 1013.0 |
| 20260506080828 | 65 | 249 | 1.0 | 5.0 | 0.00 | 0.00 | 0.00 | 41 | 1013.1 |
| 20260506080729 | 65 | 249 | 1.0 | 5.0 | 0.00 | 0.00 | 0.00 | 41 | 1013.1 |
| 20260506080641 | 65 | 249 | 0.0 | 5.0 | 0.00 | 0.00 | 0.00 | 41 | 1013.1 |
| 20260506080527 | 65 | 249 | 0.0 | 5.0 | 0.00 | 0.00 | 0.00 | 41 | 1013.1 |
| 20260506080429 | 65 | 249 | 0.0 | 5.0 | 0.00 | 0.00 | 0.00 | 41 | 1013.0 |
| 20260506080331 | 65 | 249 | 0.0 | 5.0 | 0.00 | 0.00 | 0.00 | 41 | 1013.1 |
| 20260506080240 | 65 | 249 | 1.0 | 5.0 | 0.00 | 0.00 | 0.00 | 41 | 1013.1 |
| 20260506080120 | 65 | 249 | 0.0 | 5.0 | 0.00 | 0.00 | 0.00 | 41 | 1013.1 |
| 20260506073434 | 66 | 252 | 1.0 | 4.0 | 0.00 | 0.00 | 0.00 | 40 | 1013.2 |
| 20260506073320 | 66 | 252 | 1.0 | 5.0 | 0.00 | 0.00 | 0.00 | 40 | 1013.2 |
| 20260506073222 | 66 | 252 | 0.0 | 5.0 | 0.00 | 0.00 | 0.00 | 40 | 1013.2 |
| 20260506073131 | 66 | 252 | 0.0 | 5.0 | 0.00 | 0.00 | 0.00 | 40 | 1013.2 |
| 20260506073033 | 66 | 252 | 0.0 | 5.0 | 0.00 | 0.00 | 0.00 | 40 | 1013.2 |
| 20260506072935 | 66 | 252 | 0.0 | 5.0 | 0.00 | 0.00 | 0.00 | 40 | 1013.2 |
| 20260506072817 | 66 | 252 | 0.0 | 5.0 | 0.00 | 0.00 | 0.00 | 40 | 1013.2 |
| 20260506072730 | 66 | 252 | 1.0 | 5.0 | 0.00 | 0.00 | 0.00 | 40 | 1013.2 |
| 20260506072700 | 66 | 252 | 1.0 | 5.0 | 0.00 | 0.00 | 0.00 | 40 | 1013.2 |
| 20260506072540 | 66 | 252 | 1.0 | 5.0 | 0.00 | 0.00 | 0.00 | 40 | 1013.2 |
| 20260506072423 | 66 | 253 | 1.0 | 4.0 | 0.00 | 0.00 | 0.00 | 40 | 1013.2 |
| 20260506072325 | 66 | 253 | 1.0 | 3.0 | 0.00 | 0.00 | 0.00 | 40 | 1013.2 |
| 20260506072234 | 66 | 252 | 0.0 | 0.0 | 0.00 | 0.00 | 0.00 | 40 | 1013.2 |
| 20260506072120 | 66 | 252 | 0.0 | 0.0 | 0.00 | 0.00 | 0.00 | 40 | 1013.1 |
| 20260506072021 | 66 | 252 | 0.0 | 0.0 | 0.00 | 0.00 | 0.00 | 40 | 1013.2 |
| 20260506071950 | 66 | 252 | 0.0 | 0.0 | 0.00 | 0.00 | 0.00 | 40 | 1013.1 |
| 20260506071832 | 65 | 252 | 0.0 | 0.0 | 0.00 | 0.00 | 0.00 | 40 | 1013.1 |
| 20260506071735 | 66 | 252 | 0.0 | 0.0 | 0.00 | 0.00 | 0.00 | 40 | 1013.1 |
| 20260506071616 | 65 | 252 | 0.0 | 0.0 | 0.00 | 0.00 | 0.00 | 40 | 1013.0 |
| 20260506071530 | 65 | 252 | 0.0 | 0.0 | 0.00 | 0.00 | 0.00 | 40 | 1013.1 |
| 20260506071433 | 65 | 252 | 0.0 | 0.0 | 0.00 | 0.00 | 0.00 | 40 | 1013.1 |
| 20260506071320 | 65 | 252 | 0.0 | 0.0 | 0.00 | 0.00 | 0.00 | 40 | 1013.1 |
| 20260506071222 | 65 | 252 | 0.0 | 0.0 | 0.00 | 0.00 | 0.00 | 40 | 1013.0 |
| 20260506071124 | 65 | 252 | 0.0 | 0.0 | 0.00 | 0.00 | 0.00 | 40 | 1013.1 |
| 20260506071034 | 65 | 252 | 0.0 | 0.0 | 0.00 | 0.00 | 0.00 | 40 | 1013.0 |
| 20260506070937 | 65 | 252 | 0.0 | 0.0 | 0.00 | 0.00 | 0.00 | 40 | 1013.0 |
| 20260506070827 | 65 | 252 | 0.0 | 0.0 | 0.00 | 0.00 | 0.00 | 40 | 1013.1 |
| 20260506070729 | 65 | 252 | 0.0 | 0.0 | 0.00 | 0.00 | 0.00 | 40 | 1013.0 |
| 20260506070629 | 65 | 252 | 0.0 | 0.0 | 0.00 | 0.00 | 0.00 | 40 | 1013.0 |
| 20260506070539 | 65 | 252 | 0.0 | 0.0 | 0.00 | 0.00 | 0.00 | 40 | 1013.0 |
| 20260506070420 | 65 | 252 | 0.0 | 0.0 | 0.00 | 0.00 | 0.00 | 40 | 1013.0 |
| 20260506070343 | 65 | 252 | 0.0 | 0.0 | 0.00 | 0.00 | 0.00 | 40 | 1013.1 |
| 20260506070230 | 65 | 252 | 0.0 | 0.0 | 0.00 | 0.00 | 0.00 | 40 | 1013.0 |
| 20260506070157 | 65 | 252 | 0.0 | 0.0 | 0.00 | 0.00 | 0.00 | 40 | 1013.0 |
| 20260506062439 | 66 | 252 | 0.0 | 0.0 | 0.00 | 0.00 | 0.00 | 39 | 1012.7 |
| 20260506062320 | 66 | 252 | 0.0 | 0.0 | 0.00 | 0.00 | 0.00 | 38 | 1012.7 |
| 20260506062248 | 66 | 252 | 0.0 | 0.0 | 0.00 | 0.00 | 0.00 | 38 | 1012.7 |
| 20260506062156 | 66 | 252 | 0.0 | 0.0 | 0.00 | 0.00 | 0.00 | 38 | 1012.8 |
| 20260506062042 | 66 | 252 | 0.0 | 0.0 | 0.00 | 0.00 | 0.00 | 38 | 1012.8 |
| 20260506061931 | 66 | 252 | 0.0 | 0.0 | 0.00 | 0.00 | 0.00 | 38 | 1012.8 |
| 20260506061831 | 66 | 252 | 0.0 | 0.0 | 0.00 | 0.00 | 0.00 | 38 | 1012.8 |
| 20260506061734 | 66 | 252 | 0.0 | 0.0 | 0.00 | 0.00 | 0.00 | 38 | 1012.8 |
| 20260506061653 | 66 | 252 | 0.0 | 0.0 | 0.00 | 0.00 | 0.00 | 38 | 1012.9 |
| 20260506061534 | 66 | 252 | 0.0 | 0.0 | 0.00 | 0.00 | 0.00 | 38 | 1012.8 |
| 20260506061419 | 66 | 252 | 0.0 | 0.0 | 0.00 | 0.00 | 0.00 | 38 | 1012.8 |
| 20260506061328 | 66 | 252 | 0.0 | 0.0 | 0.00 | 0.00 | 0.00 | 38 | 1012.9 |
| 20260506061249 | 66 | 252 | 0.0 | 0.0 | 0.00 | 0.00 | 0.00 | 38 | 1012.7 |
| 20260506061138 | 66 | 252 | 0.0 | 0.0 | 0.00 | 0.00 | 0.00 | 38 | 1012.7 |
| 20260506061019 | 66 | 252 | 0.0 | 0.0 | 0.00 | 0.00 | 0.00 | 38 | 1012.7 |
| 20260506060920 | 66 | 252 | 0.0 | 0.0 | 0.00 | 0.00 | 0.00 | 38 | 1012.7 |
| 20260506060828 | 66 | 252 | 0.0 | 0.0 | 0.00 | 0.00 | 0.00 | 38 | 1012.8 |
| 20260506060715 | 66 | 252 | 0.0 | 0.0 | 0.00 | 0.00 | 0.00 | 38 | 1012.7 |
| 20260506060617 | 66 | 252 | 0.0 | 0.0 | 0.00 | 0.00 | 0.00 | 38 | 1012.7 |
| 20260506060519 | 66 | 252 | 0.0 | 0.0 | 0.00 | 0.00 | 0.00 | 38 | 1012.7 |
| 20260506060429 | 66 | 252 | 0.0 | 0.0 | 0.00 | 0.00 | 0.00 | 38 | 1012.6 |
| 20260506060331 | 66 | 252 | 0.0 | 0.0 | 0.00 | 0.00 | 0.00 | 38 | 1012.5 |
| 20260506060242 | 66 | 252 | 0.0 | 0.0 | 0.00 | 0.00 | 0.00 | 38 | 1012.5 |
| 20260506060146 | 66 | 252 | 0.0 | 0.0 | 0.00 | 0.00 | 0.00 | 38 | 1012.6 |
| 20260506051335 | 67 | 252 | 0.0 | 0.0 | 0.00 | 0.00 | 0.00 | 36 | 1012.5 |
| 20260506051256 | 67 | 252 | 0.0 | 0.0 | 0.00 | 0.00 | 0.00 | 36 | 1012.5 |
| 20260506051143 | 67 | 252 | 0.0 | 0.0 | 0.00 | 0.00 | 0.00 | 36 | 1012.5 |
| 20260506051025 | 67 | 252 | 0.0 | 0.0 | 0.00 | 0.00 | 0.00 | 36 | 1012.5 |
| 20260506050928 | 67 | 252 | 0.0 | 0.0 | 0.00 | 0.00 | 0.00 | 36 | 1012.4 |
| 20260506050820 | 67 | 252 | 0.0 | 0.0 | 0.00 | 0.00 | 0.00 | 36 | 1012.5 |
| 20260506050722 | 67 | 252 | 0.0 | 0.0 | 0.00 | 0.00 | 0.00 | 36 | 1012.4 |
| 20260506050632 | 67 | 252 | 0.0 | 0.0 | 0.00 | 0.00 | 0.00 | 36 | 1012.4 |
| 20260506050554 | 67 | 252 | 0.0 | 0.0 | 0.00 | 0.00 | 0.00 | 36 | 1012.5 |
| 20260506050442 | 67 | 252 | 0.0 | 0.0 | 0.00 | 0.00 | 0.00 | 36 | 1012.5 |
| 20260506050324 | 67 | 252 | 0.0 | 0.0 | 0.00 | 0.00 | 0.00 | 36 | 1012.4 |
| 20260506050226 | 67 | 252 | 0.0 | 0.0 | 0.00 | 0.00 | 0.00 | 36 | 1012.4 |
| 20260506050139 | 67 | 252 | 0.0 | 0.0 | 0.00 | 0.00 | 0.00 | 36 | 1012.4 |
| 20260506045119 | 68 | 252 | 0.0 | 0.0 | 0.00 | 0.00 | 0.00 | 35 | 1012.2 |
| 20260506045018 | 68 | 252 | 0.0 | 0.0 | 0.00 | 0.00 | 0.00 | 35 | 1012.2 |
| 20260506044927 | 68 | 252 | 0.0 | 0.0 | 0.00 | 0.00 | 0.00 | 35 | 1012.1 |
| 20260506044828 | 68 | 252 | 0.0 | 0.0 | 0.00 | 0.00 | 0.00 | 35 | 1012.1 |
| 20260506044734 | 68 | 252 | 0.0 | 0.0 | 0.00 | 0.00 | 0.00 | 35 | 1012.0 |
| 20260506044616 | 68 | 252 | 0.0 | 0.0 | 0.00 | 0.00 | 0.00 | 35 | 1012.1 |
| 20260506044545 | 68 | 252 | 0.0 | 0.0 | 0.00 | 0.00 | 0.00 | 35 | 1012.1 |
| 20260506044426 | 68 | 252 | 0.0 | 0.0 | 0.00 | 0.00 | 0.00 | 35 | 1012.0 |
| 20260506044355 | 68 | 252 | 0.0 | 0.0 | 0.00 | 0.00 | 0.00 | 35 | 1012.0 |
| 20260506044215 | 68 | 252 | 0.0 | 0.0 | 0.00 | 0.00 | 0.00 | 35 | 1011.9 |
| 20260506044125 | 68 | 252 | 0.0 | 0.0 | 0.00 | 0.00 | 0.00 | 35 | 1012.0 |
| 20260506044030 | 68 | 252 | 0.0 | 0.0 | 0.00 | 0.00 | 0.00 | 35 | 1012.0 |
| 20260506043940 | 68 | 252 | 0.0 | 0.0 | 0.00 | 0.00 | 0.00 | 35 | 1012.0 |
| 20260506043820 | 68 | 252 | 0.0 | 0.0 | 0.00 | 0.00 | 0.00 | 35 | 1012.1 |
| 20260506043722 | 68 | 252 | 0.0 | 0.0 | 0.00 | 0.00 | 0.00 | 35 | 1012.0 |
| 20260506043631 | 68 | 252 | 0.0 | 0.0 | 0.00 | 0.00 | 0.00 | 35 | 1012.1 |
| 20260506043553 | 68 | 252 | 0.0 | 0.0 | 0.00 | 0.00 | 0.00 | 35 | 1012.1 |
| 20260506043418 | 68 | 252 | 0.0 | 0.0 | 0.00 | 0.00 | 0.00 | 35 | 1012.0 |
| 20260506043328 | 68 | 252 | 0.0 | 0.0 | 0.00 | 0.00 | 0.00 | 35 | 1012.1 |
| 20260506043229 | 68 | 252 | 0.0 | 0.0 | 0.00 | 0.00 | 0.00 | 34 | 1012.0 |
| 20260506043117 | 68 | 252 | 0.0 | 0.0 | 0.00 | 0.00 | 0.00 | 34 | 1012.0 |
| 20260506043019 | 68 | 252 | 0.0 | 0.0 | 0.00 | 0.00 | 0.00 | 34 | 1012.0 |
| 20260506042922 | 68 | 252 | 0.0 | 0.0 | 0.00 | 0.00 | 0.00 | 34 | 1012.0 |
| 20260506042831 | 68 | 252 | 0.0 | 0.0 | 0.00 | 0.00 | 0.00 | 34 | 1012.0 |
| 20260506042717 | 68 | 252 | 0.0 | 0.0 | 0.00 | 0.00 | 0.00 | 34 | 1012.0 |
| 20260506042620 | 69 | 252 | 0.0 | 0.0 | 0.00 | 0.00 | 0.00 | 34 | 1012.0 |
| 20260506042530 | 69 | 252 | 0.0 | 0.0 | 0.00 | 0.00 | 0.00 | 34 | 1012.0 |
| 20260506042452 | 69 | 252 | 0.0 | 0.0 | 0.00 | 0.00 | 0.00 | 34 | 1012.0 |
| 20260506042339 | 69 | 252 | 0.0 | 0.0 | 0.00 | 0.00 | 0.00 | 34 | 1012.0 |
| 20260506042222 | 69 | 252 | 0.0 | 0.0 | 0.00 | 0.00 | 0.00 | 34 | 1011.9 |
| 20260506042145 | 69 | 252 | 0.0 | 0.0 | 0.00 | 0.00 | 0.00 | 34 | 1011.9 |
| 20260506042037 | 69 | 252 | 0.0 | 0.0 | 0.00 | 0.00 | 0.00 | 34 | 1012.0 |
| 20260506041917 | 69 | 252 | 0.0 | 0.0 | 0.00 | 0.00 | 0.00 | 34 | 1012.0 |
| 20260506041819 | 69 | 252 | 0.0 | 0.0 | 0.00 | 0.00 | 0.00 | 34 | 1012.0 |
| 20260506041727 | 69 | 252 | 0.0 | 0.0 | 0.00 | 0.00 | 0.00 | 33 | 1012.0 |
| 20260506041635 | 69 | 252 | 0.0 | 0.0 | 0.00 | 0.00 | 0.00 | 33 | 1011.9 |
| 20260506041518 | 69 | 252 | 0.0 | 0.0 | 0.00 | 0.00 | 0.00 | 33 | 1011.7 |
| 20260506041424 | 69 | 252 | 0.0 | 0.0 | 0.00 | 0.00 | 0.00 | 33 | 1011.8 |
| 20260506041352 | 69 | 252 | 0.0 | 0.0 | 0.00 | 0.00 | 0.00 | 33 | 1011.8 |
| 20260506041231 | 69 | 252 | 0.0 | 0.0 | 0.00 | 0.00 | 0.00 | 33 | 1011.8 |
| 20260506041139 | 69 | 252 | 0.0 | 0.0 | 0.00 | 0.00 | 0.00 | 33 | 1011.8 |
| 20260506041022 | 69 | 252 | 0.0 | 0.0 | 0.00 | 0.00 | 0.00 | 33 | 1011.7 |
| 20260506040925 | 69 | 252 | 0.0 | 0.0 | 0.00 | 0.00 | 0.00 | 33 | 1011.7 |
| 20260506040827 | 69 | 252 | 0.0 | 0.0 | 0.00 | 0.00 | 0.00 | 33 | 1011.8 |
| 20260506040739 | 69 | 252 | 0.0 | 0.0 | 0.00 | 0.00 | 0.00 | 33 | 1011.7 |
| 20260506040620 | 69 | 252 | 0.0 | 0.0 | 0.00 | 0.00 | 0.00 | 33 | 1011.8 |
| 20260506040522 | 69 | 252 | 0.0 | 0.0 | 0.00 | 0.00 | 0.00 | 33 | 1011.7 |
| 20260506040424 | 69 | 252 | 0.0 | 0.0 | 0.00 | 0.00 | 0.00 | 33 | 1011.7 |
| 20260506040334 | 69 | 252 | 0.0 | 0.0 | 0.00 | 0.00 | 0.00 | 33 | 1011.7 |
| 20260506040215 | 69 | 252 | 0.0 | 0.0 | 0.00 | 0.00 | 0.00 | 33 | 1011.7 |
| 20260506040121 | 69 | 252 | 0.0 | 0.0 | 0.00 | 0.00 | 0.00 | 33 | 1011.7 |
| 20260506035940 | 69 | 252 | 0.0 | 0.0 | 0.00 | 0.00 | 0.00 | 33 | 1011.7 |
| 20260506035839 | 69 | 252 | 0.0 | 0.0 | 0.00 | 0.00 | 0.00 | 33 | 1011.7 |
| 20260506035720 | 69 | 252 | 0.0 | 0.0 | 0.00 | 0.00 | 0.00 | 33 | 1011.7 |
| 20260506035624 | 69 | 252 | 0.0 | 0.0 | 0.00 | 0.00 | 0.00 | 33 | 1011.6 |
| 20260506035536 | 69 | 252 | 0.0 | 0.0 | 0.00 | 0.00 | 0.00 | 33 | 1011.6 |
| 20260506035418 | 69 | 252 | 0.0 | 0.0 | 0.00 | 0.00 | 0.00 | 33 | 1011.6 |
| 20260506035320 | 69 | 252 | 0.0 | 0.0 | 0.00 | 0.00 | 0.00 | 33 | 1011.6 |
| 20260506035221 | 69 | 252 | 0.0 | 0.0 | 0.00 | 0.00 | 0.00 | 33 | 1011.6 |
| 20260506035152 | 69 | 252 | 0.0 | 0.0 | 0.00 | 0.00 | 0.00 | 33 | 1011.6 |
| 20260506035034 | 69 | 252 | 0.0 | 0.0 | 0.00 | 0.00 | 0.00 | 33 | 1011.6 |
| 20260506034941 | 69 | 252 | 0.0 | 0.0 | 0.00 | 0.00 | 0.00 | 33 | 1011.5 |
| 20260506034825 | 69 | 252 | 0.0 | 0.0 | 0.00 | 0.00 | 0.00 | 33 | 1011.6 |
| 20260506034734 | 69 | 252 | 0.0 | 0.0 | 0.00 | 0.00 | 0.00 | 33 | 1011.5 |
| 20260506034643 | 69 | 252 | 0.0 | 0.0 | 0.00 | 0.00 | 0.00 | 33 | 1011.5 |
| 20260506034525 | 69 | 252 | 0.0 | 0.0 | 0.00 | 0.00 | 0.00 | 33 | 1011.5 |
| 20260506034446 | 69 | 252 | 0.0 | 0.0 | 0.00 | 0.00 | 0.00 | 33 | 1011.6 |
| 20260506034334 | 69 | 252 | 0.0 | 0.0 | 0.00 | 0.00 | 0.00 | 33 | 1011.5 |
| 20260506034215 | 70 | 252 | 0.0 | 0.0 | 0.00 | 0.00 | 0.00 | 33 | 1011.5 |
| 20260506034123 | 70 | 252 | 0.0 | 0.0 | 0.00 | 0.00 | 0.00 | 33 | 1011.5 |
| 20260506034023 | 70 | 252 | 0.0 | 0.0 | 0.00 | 0.00 | 0.00 | 33 | 1011.5 |
| 20260506033933 | 70 | 252 | 0.0 | 0.0 | 0.00 | 0.00 | 0.00 | 33 | 1011.5 |
| 20260506033835 | 70 | 252 | 0.0 | 0.0 | 0.00 | 0.00 | 0.00 | 32 | 1011.4 |
| 20260506033717 | 70 | 252 | 0.0 | 0.0 | 0.00 | 0.00 | 0.00 | 32 | 1011.4 |
| 20260506033619 | 70 | 252 | 0.0 | 0.0 | 0.00 | 0.00 | 0.00 | 32 | 1011.4 |
| 20260506033531 | 70 | 252 | 0.0 | 0.0 | 0.00 | 0.00 | 0.00 | 32 | 1011.4 |
| 20260506033431 | 70 | 252 | 0.0 | 0.0 | 0.00 | 0.00 | 0.00 | 32 | 1011.4 |
| 20260506033339 | 70 | 252 | 0.0 | 0.0 | 0.00 | 0.00 | 0.00 | 32 | 1011.3 |
| 20260506033227 | 70 | 252 | 0.0 | 0.0 | 0.00 | 0.00 | 0.00 | 32 | 1011.3 |
| 20260506033148 | 70 | 252 | 0.0 | 0.0 | 0.00 | 0.00 | 0.00 | 31 | 1011.3 |
| 20260506033037 | 70 | 252 | 0.0 | 0.0 | 0.00 | 0.00 | 0.00 | 31 | 1011.4 |
| 20260506032918 | 70 | 252 | 0.0 | 0.0 | 0.00 | 0.00 | 0.00 | 31 | 1011.3 |
| 20260506032825 | 70 | 252 | 0.0 | 0.0 | 0.00 | 0.00 | 0.00 | 31 | 1011.4 |
| 20260506032729 | 70 | 252 | 0.0 | 0.0 | 0.00 | 0.00 | 0.00 | 31 | 1011.3 |
| 20260506032636 | 71 | 252 | 0.0 | 0.0 | 0.00 | 0.00 | 0.00 | 31 | 1011.3 |
| 20260506032518 | 71 | 252 | 0.0 | 0.0 | 0.00 | 0.00 | 0.00 | 31 | 1011.3 |
| 20260506032440 | 71 | 252 | 0.0 | 0.0 | 0.00 | 0.00 | 0.00 | 31 | 1011.3 |
| 20260506032328 | 71 | 252 | 0.0 | 0.0 | 0.00 | 0.00 | 0.00 | 31 | 1011.3 |
| 20260506032215 | 71 | 252 | 0.0 | 0.0 | 0.00 | 0.00 | 0.00 | 31 | 1011.3 |
| 20260506032118 | 71 | 252 | 0.0 | 0.0 | 0.00 | 0.00 | 0.00 | 31 | 1011.3 |
| 20260506032024 | 71 | 252 | 0.0 | 0.0 | 0.00 | 0.00 | 0.00 | 31 | 1011.2 |
| 20260506031925 | 71 | 252 | 0.0 | 4.0 | 0.00 | 0.00 | 0.00 | 31 | 1011.2 |
| 20260506031835 | 71 | 252 | 0.0 | 4.0 | 0.00 | 0.00 | 0.00 | 31 | 1011.2 |
| 20260506031716 | 71 | 252 | 0.0 | 4.0 | 0.00 | 0.00 | 0.00 | 31 | 1011.2 |
| 20260506031618 | 71 | 252 | 0.0 | 4.0 | 0.00 | 0.00 | 0.00 | 31 | 1011.3 |
| 20260506031524 | 71 | 252 | 0.0 | 4.0 | 0.00 | 0.00 | 0.00 | 31 | 1011.2 |
| 20260506031433 | 71 | 252 | 0.0 | 4.0 | 0.00 | 0.00 | 0.00 | 30 | 1011.2 |
| 20260506031335 | 71 | 252 | 0.0 | 5.0 | 0.00 | 0.00 | 0.00 | 30 | 1011.2 |
| 20260506031215 | 71 | 252 | 1.0 | 5.0 | 0.00 | 0.00 | 0.00 | 30 | 1011.2 |
| 20260506031125 | 71 | 252 | 1.0 | 5.0 | 0.00 | 0.00 | 0.00 | 30 | 1011.2 |
| 20260506031048 | 71 | 252 | 0.0 | 5.0 | 0.00 | 0.00 | 0.00 | 30 | 1011.2 |
| 20260506030936 | 71 | 252 | 0.0 | 5.0 | 0.00 | 0.00 | 0.00 | 30 | 1011.2 |
| 20260506030823 | 71 | 252 | 1.0 | 5.0 | 0.00 | 0.00 | 0.00 | 30 | 1011.2 |
| 20260506030725 | 71 | 252 | 1.0 | 5.0 | 0.00 | 0.00 | 0.00 | 30 | 1011.1 |
| 20260506030635 | 71 | 252 | 1.0 | 5.0 | 0.00 | 0.00 | 0.00 | 30 | 1011.2 |
| 20260506030516 | 71 | 253 | 1.0 | 4.0 | 0.00 | 0.00 | 0.00 | 30 | 1011.1 |
| 20260506030418 | 71 | 253 | 1.0 | 4.0 | 0.00 | 0.00 | 0.00 | 30 | 1011.1 |
| 20260506030326 | 71 | 254 | 1.0 | 5.0 | 0.00 | 0.00 | 0.00 | 30 | 1011.0 |
| 20260506030233 | 71 | 254 | 0.0 | 6.0 | 0.00 | 0.00 | 0.00 | 30 | 1011.1 |
| 20260506030202 | 72 | 254 | 0.0 | 6.0 | 0.00 | 0.00 | 0.00 | 30 | 1011.1 |
| 20260506030034 | 72 | 254 | 0.0 | 6.0 | 0.00 | 0.00 | 0.00 | 30 | 1011.0 |
| 20260506025922 | 72 | 254 | 0.0 | 6.0 | 0.00 | 0.00 | 0.00 | 30 | 1011.0 |
| 20260506025832 | 72 | 254 | 0.0 | 6.0 | 0.00 | 0.00 | 0.00 | 30 | 1011.0 |
| 20260506025734 | 72 | 254 | 0.0 | 6.0 | 0.00 | 0.00 | 0.00 | 30 | 1010.9 |
| 20260506025620 | 72 | 254 | 1.0 | 6.0 | 0.00 | 0.00 | 0.00 | 29 | 1010.9 |
| 20260506025549 | 72 | 254 | 2.0 | 6.0 | 0.00 | 0.00 | 0.00 | 29 | 1010.9 |
| 20260506025450 | 72 | 254 | 2.0 | 6.0 | 0.00 | 0.00 | 0.00 | 29 | 1010.9 |
| 20260506025420 | 72 | 255 | 2.0 | 6.0 | 0.00 | 0.00 | 0.00 | 29 | 1010.9 |
| 20260506025120 | 72 | 251 | 2.0 | 6.0 | 0.00 | 0.00 | 0.00 | 29 | 1011.0 |
| 20260506025022 | 72 | 252 | 2.0 | 6.0 | 0.00 | 0.00 | 0.00 | 29 | 1011.0 |
| 20260506024930 | 72 | 251 | 2.0 | 6.0 | 0.00 | 0.00 | 0.00 | 29 | 1010.9 |
| 20260506024816 | 72 | 250 | 2.0 | 6.0 | 0.00 | 0.00 | 0.00 | 29 | 1010.8 |
| 20260506024745 | 72 | 250 | 1.0 | 6.0 | 0.00 | 0.00 | 0.00 | 29 | 1010.8 |
| 20260506024646 | 72 | 250 | 2.0 | 6.0 | 0.00 | 0.00 | 0.00 | 29 | 1010.7 |
| 20260506024533 | 72 | 250 | 2.0 | 6.0 | 0.00 | 0.00 | 0.00 | 29 | 1010.8 |
| 20260506024435 | 72 | 249 | 2.0 | 6.0 | 0.00 | 0.00 | 0.00 | 29 | 1010.8 |
| 20260506024337 | 72 | 248 | 1.0 | 6.0 | 0.00 | 0.00 | 0.00 | 29 | 1010.8 |
| 20260506024225 | 72 | 249 | 1.0 | 7.0 | 0.00 | 0.00 | 0.00 | 29 | 1010.9 |
| 20260506024146 | 72 | 249 | 1.0 | 7.0 | 0.00 | 0.00 | 0.00 | 29 | 1010.9 |
| 20260506024039 | 72 | 249 | 1.0 | 7.0 | 0.00 | 0.00 | 0.00 | 29 | 1010.8 |
| 20260506023919 | 73 | 246 | 1.0 | 7.0 | 0.00 | 0.00 | 0.00 | 29 | 1010.9 |
| 20260506023821 | 73 | 246 | 1.0 | 7.0 | 0.00 | 0.00 | 0.00 | 29 | 1010.8 |
| 20260506023723 | 73 | 244 | 1.0 | 7.0 | 0.00 | 0.00 | 0.00 | 29 | 1010.7 |
| 20260506023632 | 73 | 244 | 1.0 | 7.0 | 0.00 | 0.00 | 0.00 | 28 | 1010.7 |
| 20260506023519 | 73 | 243 | 2.0 | 7.0 | 0.00 | 0.00 | 0.00 | 28 | 1010.7 |
| 20260506023421 | 73 | 244 | 2.0 | 7.0 | 0.00 | 0.00 | 0.00 | 28 | 1010.7 |
| 20260506023350 | 73 | 241 | 1.0 | 7.0 | 0.00 | 0.00 | 0.00 | 28 | 1010.7 |
| 20260506023115 | 73 | 241 | 1.0 | 7.0 | 0.00 | 0.00 | 0.00 | 27 | 1010.7 |
| 20260506023025 | 73 | 241 | 1.0 | 7.0 | 0.00 | 0.00 | 0.00 | 27 | 1010.7 |
| 20260506022946 | 73 | 240 | 1.0 | 7.0 | 0.00 | 0.00 | 0.00 | 27 | 1010.6 |
| 20260506022816 | 73 | 240 | 1.0 | 7.0 | 0.00 | 0.00 | 0.00 | 27 | 1010.7 |
| 20260506022719 | 73 | 239 | 1.0 | 7.0 | 0.00 | 0.00 | 0.00 | 27 | 1010.6 |
| 20260506022622 | 73 | 239 | 1.0 | 7.0 | 0.00 | 0.00 | 0.00 | 27 | 1010.6 |
| 20260506022531 | 73 | 239 | 1.0 | 7.0 | 0.00 | 0.00 | 0.00 | 27 | 1010.6 |
| 20260506022434 | 73 | 234 | 2.0 | 7.0 | 0.00 | 0.00 | 0.00 | 27 | 1010.6 |
| 20260506022336 | 73 | 234 | 3.0 | 7.0 | 0.00 | 0.00 | 0.00 | 27 | 1010.6 |
| 20260506022230 | 73 | 240 | 2.0 | 7.0 | 0.00 | 0.00 | 0.00 | 27 | 1010.6 |
| 20260506022130 | 73 | 233 | 2.0 | 7.0 | 0.00 | 0.00 | 0.00 | 27 | 1010.6 |
| 20260506022033 | 73 | 234 | 2.0 | 7.0 | 0.00 | 0.00 | 0.00 | 27 | 1010.5 |
| 20260506021942 | 73 | 231 | 3.0 | 7.0 | 0.00 | 0.00 | 0.00 | 27 | 1010.5 |
| 20260506021823 | 73 | 243 | 3.0 | 7.0 | 0.00 | 0.00 | 0.00 | 27 | 1010.4 |
| 20260506021725 | 73 | 240 | 3.0 | 9.0 | 0.00 | 0.00 | 0.00 | 27 | 1010.4 |
| 20260506021631 | 73 | 224 | 3.0 | 9.0 | 0.00 | 0.00 | 0.00 | 27 | 1010.3 |
| 20260506021541 | 73 | 221 | 4.0 | 13.0 | 0.00 | 0.00 | 0.00 | 27 | 1010.3 |
| 20260506021443 | 74 | 221 | 3.0 | 13.0 | 0.00 | 0.00 | 0.00 | 27 | 1010.4 |
| 20260506021324 | 74 | 218 | 3.0 | 13.0 | 0.00 | 0.00 | 0.00 | 27 | 1010.4 |
| 20260506021233 | 74 | 217 | 3.0 | 13.0 | 0.00 | 0.00 | 0.00 | 27 | 1010.3 |
| 20260506021134 | 74 | 213 | 3.0 | 13.0 | 0.00 | 0.00 | 0.00 | 27 | 1010.4 |
| 20260506021016 | 74 | 236 | 4.0 | 13.0 | 0.00 | 0.00 | 0.00 | 27 | 1010.3 |
| 20260506020929 | 74 | 224 | 4.0 | 13.0 | 0.00 | 0.00 | 0.00 | 27 | 1010.3 |
| 20260506020831 | 74 | 220 | 5.0 | 13.0 | 0.00 | 0.00 | 0.00 | 27 | 1010.3 |
| 20260506020741 | 74 | 217 | 5.0 | 13.0 | 0.00 | 0.00 | 0.00 | 27 | 1010.3 |
| 20260506020642 | 74 | 224 | 4.0 | 10.0 | 0.00 | 0.00 | 0.00 | 27 | 1010.4 |
| 20260506020543 | 74 | 208 | 4.0 | 10.0 | 0.00 | 0.00 | 0.00 | 27 | 1010.3 |
| 20260506020431 | 74 | 207 | 4.0 | 10.0 | 0.00 | 0.00 | 0.00 | 27 | 1010.3 |
| 20260506020316 | 74 | 218 | 5.0 | 10.0 | 0.00 | 0.00 | 0.00 | 27 | 1010.2 |
| 20260506020218 | 74 | 224 | 5.0 | 10.0 | 0.00 | 0.00 | 0.00 | 27 | 1010.3 |
| 20260506020127 | 74 | 230 | 4.0 | 10.0 | 0.00 | 0.00 | 0.00 | 27 | 1010.2 |
| 20260506020043 | 74 | 167 | 4.0 | 10.0 | 0.00 | 0.00 | 0.00 | 27 | 1010.2 |
| 20260506015939 | 74 | 205 | 4.0 | 10.0 | 0.00 | 0.00 | 0.00 | 27 | 1010.1 |
| 20260506015821 | 74 | 201 | 3.0 | 10.0 | 0.00 | 0.00 | 0.00 | 27 | 1010.1 |
| 20260506015727 | 74 | 201 | 2.0 | 10.0 | 0.00 | 0.00 | 0.00 | 27 | 1010.1 |
| 20260506015628 | 74 | 201 | 2.0 | 10.0 | 0.00 | 0.00 | 0.00 | 27 | 1010.1 |
| 20260506015516 | 74 | 201 | 4.0 | 10.0 | 0.00 | 0.00 | 0.00 | 27 | 1010.1 |
| 20260506015419 | 74 | 202 | 5.0 | 10.0 | 0.00 | 0.00 | 0.00 | 27 | 1010.0 |
| 20260506015322 | 74 | 202 | 5.0 | 10.0 | 0.00 | 0.00 | 0.00 | 27 | 1010.1 |
| 20260506015231 | 74 | 202 | 5.0 | 10.0 | 0.00 | 0.00 | 0.00 | 27 | 1010.1 |
| 20260506015131 | 74 | 204 | 6.0 | 10.0 | 0.00 | 0.00 | 0.00 | 27 | 1010.1 |
| 20260506015044 | 74 | 170 | 5.0 | 11.0 | 0.00 | 0.00 | 0.00 | 26 | 1010.0 |
| 20260506014924 | 75 | 267 | 4.0 | 11.0 | 0.00 | 0.00 | 0.00 | 26 | 1010.0 |
| 20260506014827 | 75 | 228 | 3.0 | 11.0 | 0.00 | 0.00 | 0.00 | 26 | 1010.0 |
| 20260506014755 | 75 | 224 | 4.0 | 11.0 | 0.00 | 0.00 | 0.00 | 26 | 1010.0 |
| 20260506014616 | 75 | 233 | 5.0 | 11.0 | 0.00 | 0.00 | 0.00 | 26 | 1009.9 |
| 20260506014525 | 75 | 224 | 3.0 | 11.0 | 0.00 | 0.00 | 0.00 | 26 | 1010.0 |
| 20260506014427 | 75 | 217 | 4.0 | 11.0 | 0.00 | 0.00 | 0.00 | 26 | 1010.0 |
| 20260506014334 | 75 | 220 | 4.0 | 11.0 | 0.00 | 0.00 | 0.00 | 26 | 1010.0 |
| 20260506014216 | 75 | 231 | 4.0 | 11.0 | 0.00 | 0.00 | 0.00 | 26 | 1010.0 |
| 20260506014146 | 75 | 235 | 5.0 | 11.0 | 0.00 | 0.00 | 0.00 | 26 | 1009.9 |
| 20260506014026 | 75 | 218 | 6.0 | 11.0 | 0.00 | 0.00 | 0.00 | 26 | 1010.0 |
| 20260506013935 | 75 | 231 | 6.0 | 11.0 | 0.00 | 0.00 | 0.00 | 26 | 1009.9 |
| 20260506013817 | 75 | 226 | 5.0 | 11.0 | 0.00 | 0.00 | 0.00 | 26 | 1010.0 |
| 20260506013723 | 75 | 212 | 6.0 | 11.0 | 0.00 | 0.00 | 0.00 | 26 | 1009.9 |
| 20260506013631 | 75 | 200 | 5.0 | 11.0 | 0.00 | 0.00 | 0.00 | 26 | 1009.9 |
| 20260506013533 | 75 | 224 | 4.0 | 11.0 | 0.00 | 0.00 | 0.00 | 26 | 1009.9 |
| 20260506013443 | 75 | 261 | 4.0 | 10.0 | 0.00 | 0.00 | 0.00 | 25 | 1009.9 |
| 20260506013325 | 75 | 198 | 6.0 | 10.0 | 0.00 | 0.00 | 0.00 | 25 | 1009.9 |
| 20260506013226 | 75 | 211 | 5.0 | 10.0 | 0.00 | 0.00 | 0.00 | 25 | 1009.8 |
| 20260506013130 | 75 | 202 | 3.0 | 10.0 | 0.00 | 0.00 | 0.00 | 25 | 1009.9 |
| 20260506013040 | 75 | 198 | 2.0 | 10.0 | 0.00 | 0.00 | 0.00 | 26 | 1009.9 |
| 20260506012921 | 75 | 203 | 1.0 | 10.0 | 0.00 | 0.00 | 0.00 | 25 | 1009.9 |
| 20260506012823 | 75 | 226 | 1.0 | 10.0 | 0.00 | 0.00 | 0.00 | 25 | 1009.9 |
| 20260506012725 | 75 | 227 | 3.0 | 10.0 | 0.00 | 0.00 | 0.00 | 25 | 1009.9 |
| 20260506012634 | 75 | 227 | 4.0 | 11.0 | 0.00 | 0.00 | 0.00 | 25 | 1010.0 |
| 20260506012519 | 75 | 209 | 4.0 | 11.0 | 0.00 | 0.00 | 0.00 | 25 | 1010.0 |
| 20260506012421 | 75 | 216 | 5.0 | 11.0 | 0.00 | 0.00 | 0.00 | 25 | 1009.9 |
| 20260506012331 | 76 | 225 | 5.0 | 11.0 | 0.00 | 0.00 | 0.00 | 25 | 1010.0 |
| 20260506012253 | 76 | 267 | 4.0 | 11.0 | 0.00 | 0.00 | 0.00 | 25 | 1009.9 |
| 20260506012140 | 76 | 240 | 4.0 | 11.0 | 0.00 | 0.00 | 0.00 | 25 | 1009.9 |
| 20260506012021 | 76 | 240 | 5.0 | 11.0 | 0.00 | 0.00 | 0.00 | 25 | 1009.8 |
| 20260506011923 | 76 | 236 | 6.0 | 11.0 | 0.00 | 0.00 | 0.00 | 25 | 1009.8 |
| 20260506011816 | 76 | 211 | 2.0 | 11.0 | 0.00 | 0.00 | 0.00 | 25 | 1009.9 |
| 20260506011718 | 76 | 227 | 0.0 | 11.0 | 0.00 | 0.00 | 0.00 | 25 | 1009.8 |
| 20260506011620 | 76 | 244 | 0.0 | 12.0 | 0.00 | 0.00 | 0.00 | 25 | 1009.8 |
| 20260506011530 | 76 | 246 | 0.0 | 12.0 | 0.00 | 0.00 | 0.00 | 25 | 1009.9 |
| 20260506011430 | 76 | 200 | 1.0 | 12.0 | 0.00 | 0.00 | 0.00 | 25 | 1009.9 |
| 20260506011332 | 76 | 252 | 3.0 | 12.0 | 0.00 | 0.00 | 0.00 | 25 | 1009.8 |
| 20260506011219 | 76 | 199 | 4.0 | 12.0 | 0.00 | 0.00 | 0.00 | 25 | 1009.8 |
| 20260506011129 | 76 | 195 | 2.0 | 12.0 | 0.00 | 0.00 | 0.00 | 25 | 1009.9 |
| 20260506011051 | 76 | 195 | 3.0 | 12.0 | 0.00 | 0.00 | 0.00 | 25 | 1009.7 |
| 20260506010938 | 76 | 247 | 7.0 | 12.0 | 0.00 | 0.00 | 0.00 | 25 | 1009.7 |
| 20260506010819 | 77 | 216 | 6.0 | 12.0 | 0.00 | 0.00 | 0.00 | 25 | 1009.7 |
| 20260506010742 | 77 | 248 | 5.0 | 12.0 | 0.00 | 0.00 | 0.00 | 25 | 1009.6 |
| 20260506010627 | 77 | 219 | 6.0 | 12.0 | 0.00 | 0.00 | 0.00 | 25 | 1009.7 |
| 20260506010541 | 77 | 227 | 7.0 | 12.0 | 0.00 | 0.00 | 0.00 | 25 | 1009.7 |
| 20260506010422 | 77 | 263 | 5.0 | 12.0 | 0.00 | 0.00 | 0.00 | 26 | 1009.6 |
| 20260506010342 | 77 | 220 | 3.0 | 9.0 | 0.00 | 0.00 | 0.00 | 25 | 1009.7 |
| 20260506010250 | 77 | 222 | 3.0 | 9.0 | 0.00 | 0.00 | 0.00 | 25 | 1009.6 |
| 20260506010130 | 77 | 222 | 2.0 | 9.0 | 0.00 | 0.00 | 0.00 | 25 | 1009.7 |
| 20260506010050 | 77 | 252 | 1.0 | 8.0 | 0.00 | 0.00 | 0.00 | 25 | 1009.7 |
| 20260506005940 | 77 | 211 | 0.0 | 2.0 | 0.00 | 0.00 | 0.00 | 25 | 1009.6 |
| 20260506005846 | 77 | 214 | 0.0 | 2.0 | 0.00 | 0.00 | 0.00 | 25 | 1009.7 |
| 20260506005731 | 77 | 245 | 0.0 | 2.0 | 0.00 | 0.00 | 0.00 | 25 | 1009.7 |
| 20260506005641 | 77 | 245 | 0.0 | 2.0 | 0.00 | 0.00 | 0.00 | 25 | 1009.7 |
| 20260506005523 | 78 | 248 | 0.0 | 2.0 | 0.00 | 0.00 | 0.00 | 25 | 1009.7 |
| 20260506005424 | 77 | 189 | 0.0 | 3.0 | 0.00 | 0.00 | 0.00 | 25 | 1009.7 |
| 20260506005328 | 77 | 221 | 0.0 | 3.0 | 0.00 | 0.00 | 0.00 | 25 | 1009.8 |
| 20260506005236 | 77 | 229 | 0.0 | 3.0 | 0.00 | 0.00 | 0.00 | 25 | 1009.6 |
| 20260506005123 | 77 | 252 | 0.0 | 3.0 | 0.00 | 0.00 | 0.00 | 26 | 1009.6 |
| 20260506005045 | 77 | 211 | 0.0 | 3.0 | 0.00 | 0.00 | 0.00 | 26 | 1009.6 |
| 20260506004932 | 77 | 233 | 0.0 | 3.0 | 0.00 | 0.00 | 0.00 | 25 | 1009.6 |
| 20260506004833 | 77 | 251 | 0.0 | 3.0 | 0.00 | 0.00 | 0.00 | 25 | 1009.6 |
| 20260506004735 | 77 | 252 | 0.0 | 9.0 | 0.00 | 0.00 | 0.00 | 25 | 1009.6 |
| 20260506004617 | 77 | 251 | 0.0 | 9.0 | 0.00 | 0.00 | 0.00 | 25 | 1009.6 |
| 20260506004532 | 77 | 232 | 0.0 | 9.0 | 0.00 | 0.00 | 0.00 | 26 | 1009.5 |
| 20260506004438 | 77 | 219 | 0.0 | 9.0 | 0.00 | 0.00 | 0.00 | 26 | 1009.6 |
| 20260506004319 | 77 | 217 | 0.0 | 10.0 | 0.00 | 0.00 | 0.00 | 26 | 1009.5 |
| 20260506004221 | 77 | 186 | 0.0 | 10.0 | 0.00 | 0.00 | 0.00 | 26 | 1009.5 |
| 20260506004124 | 77 | 243 | 0.0 | 10.0 | 0.00 | 0.00 | 0.00 | 26 | 1009.5 |
| 20260506004053 | 77 | 231 | 3.0 | 10.0 | 0.00 | 0.00 | 0.00 | 26 | 1009.5 |
| 20260506004001 | 77 | 248 | 5.0 | 10.0 | 0.00 | 0.00 | 0.00 | 26 | 1009.5 |
| 20260506003825 | 77 | 244 | 3.0 | 10.0 | 0.00 | 0.00 | 0.00 | 26 | 1009.5 |
| 20260506003725 | 77 | 247 | 1.0 | 10.0 | 0.00 | 0.00 | 0.00 | 26 | 1009.4 |
| 20260506003632 | 77 | 224 | 2.0 | 10.0 | 0.00 | 0.00 | 0.00 | 26 | 1009.5 |
| 20260506003533 | 77 | 224 | 3.0 | 10.0 | 0.00 | 0.00 | 0.00 | 25 | 1009.4 |
| 20260506003424 | 77 | 250 | 4.0 | 10.0 | 0.00 | 0.00 | 0.00 | 26 | 1009.4 |
| 20260506003325 | 77 | 236 | 4.0 | 10.0 | 0.00 | 0.00 | 0.00 | 26 | 1009.5 |
| 20260506003227 | 77 | 176 | 2.0 | 12.0 | 0.00 | 0.00 | 0.00 | 26 | 1009.4 |
| 20260506003141 | 77 | 243 | 2.0 | 12.0 | 0.00 | 0.00 | 0.00 | 26 | 1009.4 |
| 20260506003020 | 77 | 240 | 3.0 | 12.0 | 0.00 | 0.00 | 0.00 | 26 | 1009.4 |
| 20260506002951 | 77 | 236 | 4.0 | 12.0 | 0.00 | 0.00 | 0.00 | 26 | 1009.4 |
| 20260506002913 | 77 | 220 | 5.0 | 12.0 | 0.00 | 0.00 | 0.00 | 26 | 1009.4 |
| 20260506002821 | 77 | 219 | 3.0 | 12.0 | 0.00 | 0.00 | 0.00 | 26 | 1009.4 |
| 20260506002520 | 76 | 241 | 5.0 | 12.0 | 0.00 | 0.00 | 0.00 | 26 | 1009.4 |
| 20260506002422 | 76 | 240 | 5.0 | 12.0 | 0.00 | 0.00 | 0.00 | 26 | 1009.3 |
| 20260506002328 | 76 | 236 | 2.0 | 10.0 | 0.00 | 0.00 | 0.00 | 26 | 1009.3 |
| 20260506002236 | 76 | 250 | 0.0 | 10.0 | 0.00 | 0.00 | 0.00 | 26 | 1009.4 |
| 20260506002119 | 77 | 255 | 0.0 | 10.0 | 0.00 | 0.00 | 0.00 | 26 | 1009.4 |
| 20260506002021 | 77 | 245 | 0.0 | 10.0 | 0.00 | 0.00 | 0.00 | 26 | 1009.6 |
| 20260506001932 | 77 | 214 | 0.0 | 10.0 | 0.00 | 0.00 | 0.00 | 27 | 1009.5 |
| 20260506001832 | 77 | 201 | 1.0 | 10.0 | 0.00 | 0.00 | 0.00 | 27 | 1009.5 |
| 20260506001745 | 77 | 252 | 3.0 | 10.0 | 0.00 | 0.00 | 0.00 | 26 | 1009.4 |
| 20260506001626 | 77 | 220 | 2.0 | 10.0 | 0.00 | 0.00 | 0.00 | 26 | 1009.3 |
| 20260506001528 | 77 | 252 | 0.0 | 4.0 | 0.00 | 0.00 | 0.00 | 26 | 1009.3 |
| 20260506001438 | 77 | 212 | 0.0 | 4.0 | 0.00 | 0.00 | 0.00 | 27 | 1009.3 |
| 20260506001317 | 77 | 225 | 0.0 | 4.0 | 0.00 | 0.00 | 0.00 | 27 | 1009.3 |
| 20260506001226 | 77 | 261 | 1.0 | 4.0 | 0.00 | 0.00 | 0.00 | 26 | 1009.4 |
| 20260506001127 | 77 | 264 | 0.0 | 4.0 | 0.00 | 0.00 | 0.00 | 26 | 1009.3 |
| 20260506001042 | 77 | 259 | 0.0 | 8.0 | 0.00 | 0.00 | 0.00 | 26 | 1009.3 |
| 20260506000943 | 77 | 259 | 0.0 | 8.0 | 0.00 | 0.00 | 0.00 | 26 | 1009.2 |
| 20260506000823 | 77 | 259 | 0.0 | 8.0 | 0.00 | 0.00 | 0.00 | 26 | 1009.2 |
| 20260506000725 | 77 | 259 | 0.0 | 8.0 | 0.00 | 0.00 | 0.00 | 26 | 1009.2 |
| 20260506000633 | 77 | 252 | 0.0 | 8.0 | 0.00 | 0.00 | 0.00 | 26 | 1009.2 |
| 20260506000515 | 78 | 252 | 0.0 | 8.0 | 0.00 | 0.00 | 0.00 | 25 | 1009.1 |
| 20260506000445 | 78 | 246 | 1.0 | 8.0 | 0.00 | 0.00 | 0.00 | 26 | 1009.1 |
| 20260506000330 | 78 | 243 | 1.0 | 8.0 | 0.00 | 0.00 | 0.00 | 26 | 1009.1 |
| 20260506000232 | 78 | 243 | 1.0 | 7.0 | 0.00 | 0.00 | 0.00 | 25 | 1009.1 |
| 20260506000120 | 78 | 205 | 1.0 | 5.0 | 0.00 | 0.00 | 0.00 | 26 | 1009.1 |
| 20260506000032 | 78 | 269 | 0.0 | 3.0 | 0.00 | 0.00 | 0.00 | 26 | 1009.1 |
| 20260505235930 | 78 | 275 | 0.0 | 3.0 | 0.00 | 0.00 | 0.00 | 26 | 1009.1 |
| 20260505235833 | 78 | 231 | 0.0 | 4.0 | 0.00 | 0.00 | 0.00 | 26 | 1009.1 |
| 20260505235739 | 78 | 231 | 0.0 | 5.0 | 0.00 | 0.00 | 0.00 | 26 | 1009.1 |
| 20260505235628 | 78 | 199 | 0.0 | 5.0 | 0.00 | 0.00 | 0.00 | 26 | 1009.2 |
| 20260505235530 | 78 | 228 | 0.0 | 5.0 | 0.00 | 0.00 | 0.00 | 26 | 1009.2 |
| 20260505235431 | 78 | 269 | 0.0 | 5.0 | 0.00 | 0.00 | 0.00 | 26 | 1009.2 |
| 20260505235341 | 78 | 258 | 0.0 | 5.0 | 0.00 | 0.00 | 0.00 | 26 | 1009.2 |
| 20260505235223 | 78 | 234 | 1.0 | 5.0 | 0.00 | 0.00 | 0.00 | 26 | 1009.4 |
| 20260505235129 | 78 | 240 | 1.0 | 5.0 | 0.00 | 0.00 | 0.00 | 26 | 1009.3 |
| 20260505235039 | 78 | 229 | 0.0 | 5.0 | 0.00 | 0.00 | 0.00 | 26 | 1009.3 |
| 20260505234938 | 78 | 220 | 1.0 | 5.0 | 0.00 | 0.00 | 0.00 | 26 | 1009.3 |
| 20260505234839 | 78 | 256 | 0.0 | 8.0 | 0.00 | 0.00 | 0.00 | 25 | 1009.2 |
| 20260505234726 | 78 | 255 | 1.0 | 9.0 | 0.00 | 0.00 | 0.00 | 25 | 1009.3 |
| 20260505234628 | 78 | 278 | 1.0 | 9.0 | 0.00 | 0.00 | 0.00 | 25 | 1009.2 |
| 20260505234531 | 78 | 204 | 0.0 | 9.0 | 0.00 | 0.00 | 0.00 | 26 | 1009.3 |
| 20260505234417 | 79 | 248 | 0.0 | 9.0 | 0.00 | 0.00 | 0.00 | 26 | 1009.2 |
| 20260505234325 | 78 | 243 | 0.0 | 9.0 | 0.00 | 0.00 | 0.00 | 26 | 1009.1 |
| 20260505234227 | 79 | 244 | 1.0 | 9.0 | 0.00 | 0.00 | 0.00 | 25 | 1009.1 |
| 20260505234130 | 79 | 216 | 2.0 | 9.0 | 0.00 | 0.00 | 0.00 | 26 | 1009.1 |
| 20260505234017 | 78 | 229 | 4.0 | 9.0 | 0.00 | 0.00 | 0.00 | 25 | 1009.0 |
| 20260505233919 | 78 | 217 | 2.0 | 10.0 | 0.00 | 0.00 | 0.00 | 25 | 1009.1 |
| 20260505233826 | 79 | 243 | 0.0 | 10.0 | 0.00 | 0.00 | 0.00 | 25 | 1009.0 |
| 20260505233734 | 79 | 204 | 0.0 | 10.0 | 0.00 | 0.00 | 0.00 | 26 | 1009.1 |
| 20260505233635 | 78 | 187 | 0.0 | 10.0 | 0.00 | 0.00 | 0.00 | 27 | 1009.1 |
| 20260505233517 | 78 | 247 | 1.0 | 10.0 | 0.00 | 0.00 | 0.00 | 26 | 1009.1 |
| 20260505233426 | 78 | 217 | 1.0 | 10.0 | 0.00 | 0.00 | 0.00 | 26 | 1009.1 |
| 20260505233327 | 78 | 271 | 1.0 | 10.0 | 0.00 | 0.00 | 0.00 | 25 | 1009.1 |
| 20260505233241 | 78 | 236 | 1.0 | 10.0 | 0.00 | 0.00 | 0.00 | 25 | 1009.1 |
| 20260505233124 | 78 | 217 | 2.0 | 10.0 | 0.00 | 0.00 | 0.00 | 25 | 1009.1 |
| 20260505233026 | 78 | 238 | 0.0 | 6.0 | 0.00 | 0.00 | 0.00 | 25 | 1009.0 |
| 20260505232953 | 77 | 236 | 0.0 | 6.0 | 0.00 | 0.00 | 0.00 | 26 | 1009.1 |
| 20260505232834 | 77 | 238 | 0.0 | 7.0 | 0.00 | 0.00 | 0.00 | 25 | 1009.1 |
| 20260505232742 | 77 | 240 | 1.0 | 7.0 | 0.00 | 0.00 | 0.00 | 25 | 1009.1 |
| 20260505232643 | 77 | 233 | 1.0 | 7.0 | 0.00 | 0.00 | 0.00 | 26 | 1009.1 |
| 20260505232552 | 77 | 238 | 0.0 | 7.0 | 0.00 | 0.00 | 0.00 | 26 | 1009.1 |
| 20260505232416 | 78 | 245 | 1.0 | 7.0 | 0.00 | 0.00 | 0.00 | 25 | 1009.3 |
| 20260505232318 | 78 | 250 | 2.0 | 7.0 | 0.00 | 0.00 | 0.00 | 25 | 1009.2 |
| 20260505232247 | 78 | 254 | 4.0 | 7.0 | 0.00 | 0.00 | 0.00 | 26 | 1009.2 |
| 20260505232128 | 78 | 248 | 3.0 | 7.0 | 0.00 | 0.00 | 0.00 | 25 | 1009.3 |
| 20260505232038 | 78 | 250 | 1.0 | 7.0 | 0.00 | 0.00 | 0.00 | 25 | 1009.2 |
| 20260505231919 | 78 | 236 | 1.0 | 6.0 | 0.00 | 0.00 | 0.00 | 26 | 1009.2 |
| 20260505231843 | 78 | 290 | 0.0 | 3.0 | 0.00 | 0.00 | 0.00 | 26 | 1009.1 |
| 20260505231731 | 78 | 220 | 0.0 | 3.0 | 0.00 | 0.00 | 0.00 | 26 | 1009.1 |
| 20260505231652 | 77 | 281 | 0.0 | 3.0 | 0.00 | 0.00 | 0.00 | 27 | 1009.2 |
| 20260505231542 | 77 | 244 | 0.0 | 6.0 | 0.00 | 0.00 | 0.00 | 27 | 1009.2 |
| 20260505231424 | 77 | 222 | 0.0 | 6.0 | 0.00 | 0.00 | 0.00 | 27 | 1009.1 |
| 20260505231325 | 77 | 221 | 0.0 | 6.0 | 0.00 | 0.00 | 0.00 | 27 | 1009.2 |
| 20260505231232 | 77 | 221 | 0.0 | 6.0 | 0.00 | 0.00 | 0.00 | 27 | 1009.2 |
| 20260505231118 | 77 | 229 | 0.0 | 6.0 | 0.00 | 0.00 | 0.00 | 27 | 1009.3 |
| 20260505231020 | 77 | 227 | 0.0 | 6.0 | 0.00 | 0.00 | 0.00 | 27 | 1009.3 |
| 20260505230949 | 77 | 244 | 0.0 | 6.0 | 0.00 | 0.00 | 0.00 | 27 | 1009.2 |
| 20260505230829 | 77 | 259 | 0.0 | 6.0 | 0.00 | 0.00 | 0.00 | 27 | 1009.3 |
| 20260505230738 | 77 | 264 | 0.0 | 6.0 | 0.00 | 0.00 | 0.00 | 27 | 1009.3 |
| 20260505230619 | 77 | 256 | 0.0 | 8.0 | 0.00 | 0.00 | 0.00 | 27 | 1009.2 |
| 20260505230541 | 77 | 261 | 0.0 | 8.0 | 0.00 | 0.00 | 0.00 | 26 | 1009.2 |
| 20260505230453 | 77 | 260 | 0.0 | 8.0 | 0.00 | 0.00 | 0.00 | 26 | 1009.3 |
| 20260505230333 | 77 | 266 | 0.0 | 8.0 | 0.00 | 0.00 | 0.00 | 27 | 1009.2 |
| 20260505230215 | 77 | 209 | 0.0 | 8.0 | 0.00 | 0.00 | 0.00 | 27 | 1009.2 |
| 20260505230124 | 77 | 210 | 0.0 | 8.0 | 0.00 | 0.00 | 0.00 | 27 | 1009.2 |
| 20260505230044 | 77 | 233 | 0.0 | 8.0 | 0.00 | 0.00 | 0.00 | 27 | 1009.2 |
| 20260505225915 | 77 | 233 | 1.0 | 8.0 | 0.00 | 0.00 | 0.00 | 27 | 1009.4 |
| 20260505225821 | 78 | 233 | 4.0 | 8.0 | 0.00 | 0.00 | 0.00 | 26 | 1009.5 |
| 20260505225723 | 78 | 244 | 4.0 | 8.0 | 0.00 | 0.00 | 0.00 | 27 | 1009.4 |
| 20260505225632 | 78 | 237 | 1.0 | 6.0 | 0.00 | 0.00 | 0.00 | 27 | 1009.5 |
| 20260505225534 | 78 | 235 | 0.0 | 6.0 | 0.00 | 0.00 | 0.00 | 27 | 1009.4 |
| 20260505225415 | 77 | 239 | 1.0 | 6.0 | 0.00 | 0.00 | 0.00 | 27 | 1009.4 |
| 20260505225317 | 77 | 235 | 2.0 | 6.0 | 0.00 | 0.00 | 0.00 | 27 | 1009.4 |
| 20260505225230 | 77 | 173 | 1.0 | 4.0 | 0.00 | 0.00 | 0.00 | 27 | 1009.4 |
| 20260505225201 | 77 | 239 | 0.0 | 3.0 | 0.00 | 0.00 | 0.00 | 27 | 1009.4 |
| 20260505225022 | 77 | 247 | 0.0 | 3.0 | 0.00 | 0.00 | 0.00 | 27 | 1009.5 |
| 20260505224923 | 77 | 247 | 0.0 | 3.0 | 0.00 | 0.00 | 0.00 | 27 | 1009.4 |
| 20260505224852 | 77 | 277 | 0.0 | 3.0 | 0.00 | 0.00 | 0.00 | 27 | 1009.5 |
| 20260505224752 | 78 | 262 | 0.0 | 10.0 | 0.00 | 0.00 | 0.00 | 27 | 1009.5 |
| 20260505224638 | 78 | 277 | 0.0 | 10.0 | 0.00 | 0.00 | 0.00 | 26 | 1009.4 |
| 20260505224523 | 78 | 260 | 0.0 | 12.0 | 0.00 | 0.00 | 0.00 | 26 | 1009.5 |
| 20260505224425 | 78 | 248 | 0.0 | 12.0 | 0.00 | 0.00 | 0.00 | 26 | 1009.5 |
| 20260505224354 | 79 | 261 | 0.0 | 12.0 | 0.00 | 0.00 | 0.00 | 26 | 1009.5 |
| 20260505224235 | 78 | 273 | 0.0 | 12.0 | 0.00 | 0.00 | 0.00 | 26 | 1009.4 |
| 20260505224117 | 78 | 261 | 0.0 | 12.0 | 0.00 | 0.00 | 0.00 | 27 | 1009.5 |
| 20260505224018 | 78 | 203 | 1.0 | 12.0 | 0.00 | 0.00 | 0.00 | 27 | 1009.4 |
| 20260505223926 | 78 | 236 | 1.0 | 12.0 | 0.00 | 0.00 | 0.00 | 27 | 1009.5 |
| 20260505223831 | 78 | 243 | 1.0 | 12.0 | 0.00 | 0.00 | 0.00 | 26 | 1009.5 |
| 20260505223743 | 78 | 258 | 3.0 | 12.0 | 0.00 | 0.00 | 0.00 | 26 | 1009.5 |
| 20260505223625 | 79 | 266 | 3.0 | 10.0 | 0.00 | 0.00 | 0.00 | 26 | 1009.6 |
| 20260505223525 | 79 | 259 | 1.0 | 10.0 | 0.00 | 0.00 | 0.00 | 26 | 1009.6 |
| 20260505223427 | 79 | 265 | 1.0 | 10.0 | 0.00 | 0.00 | 0.00 | 25 | 1009.6 |
| 20260505223336 | 79 | 217 | 1.0 | 10.0 | 0.00 | 0.00 | 0.00 | 26 | 1009.6 |
| 20260505223242 | 79 | 212 | 1.0 | 9.0 | 0.00 | 0.00 | 0.00 | 27 | 1009.5 |
| 20260505223127 | 78 | 248 | 2.0 | 9.0 | 0.00 | 0.00 | 0.00 | 27 | 1009.6 |
| 20260505223029 | 78 | 236 | 3.0 | 8.0 | 0.00 | 0.00 | 0.00 | 27 | 1009.5 |
| 20260505222958 | 78 | 171 | 3.0 | 8.0 | 0.00 | 0.00 | 0.00 | 27 | 1009.6 |
| 20260505222818 | 77 | 264 | 0.0 | 6.0 | 0.00 | 0.00 | 0.00 | 27 | 1009.6 |
| 20260505222719 | 77 | 270 | 0.0 | 6.0 | 0.00 | 0.00 | 0.00 | 28 | 1009.7 |
| 20260505222627 | 77 | 270 | 0.0 | 6.0 | 0.00 | 0.00 | 0.00 | 28 | 1009.8 |
| 20260505222548 | 76 | 267 | 0.0 | 6.0 | 0.00 | 0.00 | 0.00 | 28 | 1009.8 |
| 20260505222420 | 76 | 271 | 0.0 | 6.0 | 0.00 | 0.00 | 0.00 | 28 | 1009.9 |
| 20260505222322 | 76 | 262 | 0.0 | 6.0 | 0.00 | 0.00 | 0.00 | 28 | 1010.0 |
| 20260505222224 | 77 | 283 | 0.0 | 6.0 | 0.00 | 0.00 | 0.00 | 28 | 1009.9 |
| 20260505222131 | 77 | 233 | 1.0 | 7.0 | 0.00 | 0.00 | 0.00 | 28 | 1009.8 |
| 20260505222039 | 77 | 250 | 1.0 | 7.0 | 0.00 | 0.00 | 0.00 | 28 | 1009.8 |
| 20260505221921 | 77 | 238 | 1.0 | 7.0 | 0.00 | 0.00 | 0.00 | 28 | 1009.8 |
| 20260505221827 | 77 | 211 | 0.0 | 7.0 | 0.00 | 0.00 | 0.00 | 28 | 1009.9 |
| 20260505221728 | 76 | 193 | 0.0 | 7.0 | 0.00 | 0.00 | 0.00 | 29 | 1009.9 |
| 20260505221636 | 76 | 220 | 0.0 | 9.0 | 0.00 | 0.00 | 0.00 | 29 | 1009.9 |
| 20260505221516 | 76 | 262 | 0.0 | 9.0 | 0.00 | 0.00 | 0.00 | 28 | 1010.0 |
| 20260505221418 | 76 | 263 | 0.0 | 9.0 | 0.00 | 0.00 | 0.00 | 28 | 1010.0 |
| 20260505221328 | 76 | 233 | 0.0 | 9.0 | 0.00 | 0.00 | 0.00 | 28 | 1010.0 |
| 20260505221230 | 77 | 210 | 0.0 | 9.0 | 0.00 | 0.00 | 0.00 | 29 | 1010.0 |
| 20260505221115 | 77 | 270 | 0.0 | 9.0 | 0.00 | 0.00 | 0.00 | 29 | 1010.0 |
| 20260505221046 | 77 | 283 | 0.0 | 9.0 | 0.00 | 0.00 | 0.00 | 29 | 1010.0 |
| 20260505220919 | 76 | 254 | 1.0 | 9.0 | 0.00 | 0.00 | 0.00 | 29 | 1010.1 |
| 20260505220820 | 76 | 276 | 2.0 | 9.0 | 0.00 | 0.00 | 0.00 | 29 | 1010.0 |
| 20260505220721 | 76 | 272 | 1.0 | 8.0 | 0.00 | 0.00 | 0.00 | 29 | 1010.1 |
| 20260505220650 | 76 | 253 | 0.0 | 4.0 | 0.00 | 0.00 | 0.00 | 29 | 1010.1 |
| 20260505220515 | 76 | 252 | 1.0 | 4.0 | 0.00 | 0.00 | 0.00 | 29 | 1010.1 |
| 20260505220425 | 76 | 221 | 1.0 | 4.0 | 0.00 | 0.00 | 0.00 | 29 | 1010.1 |
| 20260505220326 | 76 | 238 | 0.0 | 4.0 | 0.00 | 0.00 | 0.00 | 29 | 1010.1 |
| 20260505220234 | 76 | 254 | 0.0 | 2.0 | 0.00 | 0.00 | 0.00 | 28 | 1010.1 |
| 20260505220116 | 77 | 254 | 0.0 | 9.0 | 0.00 | 0.00 | 0.00 | 28 | 1010.1 |
| 20260505220057 | 77 | 254 | 0.0 | 9.0 | 0.00 | 0.00 | 0.00 | 28 | 1010.1 |
| 20260505215926 | 77 | 214 | 0.0 | 9.0 | 0.00 | 0.00 | 0.00 | 29 | 1010.1 |